GW3184 Weather Reports


time (UTC)temp
C
wind
direction
speed
KPH
gust
KPH
rain 1hr
cm
rain 24hr
cm
rain mn
cm
humidity
%
barometer
mb
20260510071655 12 178 1.6 6.4 0.03 1.40 0.30 95 1009.4
20260510071555 12 244 3.2 6.4 0.03 1.40 0.30 95 1009.3
20260510071456 12 233 3.2 6.4 0.03 1.40 0.30 95 1009.4
20260510071355 12 214 4.8 6.4 0.03 1.40 0.30 95 1009.4
20260510071255 12 207 4.8 6.4 0.03 1.40 0.30 95 1009.4
20260510071156 12 229 1.6 4.8 0.03 1.40 0.30 95 1009.5
20260510071055 12 231 0.0 4.8 0.03 1.40 0.30 95 1009.4
20260510070855 12 215 0.0 3.2 0.03 1.40 0.30 95 1009.5
20260510070755 12 215 0.0 3.2 0.03 1.40 0.30 95 1009.5
20260510070655 12 215 0.0 3.2 0.03 1.40 0.30 95 1009.5
20260510070556 12 215 1.6 3.2 0.03 1.40 0.30 95 1009.4
20260510070455 12 215 0.0 1.6 0.03 1.40 0.30 95 1009.4
20260510070355 12 215 0.0 1.6 0.03 1.40 0.30 95 1009.6
20260510070255 12 215 1.6 1.6 0.03 1.40 0.30 95 1009.7
20260510070155 12 215 1.6 1.6 0.03 1.40 0.30 95 1009.7
20260510070055 12 215 0.0 1.6 0.03 1.40 0.30 95 1009.7
20260510065855 12 215 0.0 1.6 0.03 1.40 0.30 95 1009.9
20260510065755 12 215 1.6 3.2 0.00 1.37 0.28 95 1010.0
20260510065655 12 215 0.0 3.2 0.00 1.37 0.28 95 1010.0
20260510065556 12 215 0.0 3.2 0.00 1.37 0.28 95 1010.1
20260510065456 12 215 0.0 3.2 0.00 1.37 0.28 95 1010.3
20260510065355 12 215 1.6 3.2 0.00 1.37 0.28 95 1010.3
20260510065256 12 215 0.0 3.2 0.00 1.37 0.28 95 1010.5
20260510065155 12 215 0.0 3.2 0.00 1.37 0.28 95 1010.5
20260510065055 12 215 1.6 3.2 0.00 1.37 0.28 95 1010.5
20260510064955 12 215 0.0 3.2 0.00 1.37 0.28 95 1010.4
20260510064855 12 215 1.6 3.2 0.00 1.37 0.28 95 1010.4
20260510064755 12 215 1.6 3.2 0.00 1.37 0.28 95 1010.4
20260510064555 12 215 0.0 1.6 0.00 1.37 0.28 95 1010.3
20260510064355 12 215 0.0 1.6 0.00 1.37 0.28 95 1010.4
20260510064255 12 215 0.0 1.6 0.00 1.37 0.28 95 1010.3
20260510064156 12 215 0.0 1.6 0.00 1.37 0.28 95 1010.3
20260510063956 12 215 1.6 1.6 0.00 1.37 0.28 95 1010.1
20260510063856 12 215 0.0 1.6 0.00 1.37 0.28 95 1010.0
20260510063755 12 215 0.0 1.6 0.00 1.37 0.28 95 1010.1
20260510063555 11 215 0.0 1.6 0.00 1.37 0.28 95 1010.0
20260510063454 11 215 0.0 1.6 0.00 1.37 0.28 95 1009.8
20260510063255 11 215 1.6 1.6 0.00 1.37 0.28 95 1009.7
20260510063155 11 215 0.0 3.2 0.00 1.37 0.28 95 1009.7
20260510063055 11 215 0.0 3.2 0.00 1.37 0.28 95 1009.6
20260510062855 11 215 0.0 3.2 0.00 1.37 0.28 95 1009.5
20260510062755 11 215 0.0 3.2 0.00 1.37 0.28 95 1009.5
20260510062655 11 215 0.0 3.2 0.00 1.37 0.28 95 1009.5
20260510062555 11 215 0.0 3.2 0.00 1.37 0.28 95 1009.5
20260510062455 11 215 0.0 3.2 0.00 1.37 0.28 95 1009.4
20260510062356 11 215 1.6 3.2 0.00 1.37 0.28 95 1009.5
20260510062255 11 215 0.0 3.2 0.00 1.37 0.28 95 1009.5
20260510062155 11 215 1.6 3.2 0.00 1.37 0.28 95 1009.5
20260510062055 11 215 1.6 1.6 0.00 1.37 0.28 95 1009.5
20260510061854 11 215 0.0 1.6 0.00 1.37 0.28 95 1009.4
20260510061758 12 215 0.0 3.2 0.00 1.37 0.28 94 1009.5
20260510061555 12 215 0.0 3.2 0.00 1.37 0.28 94 1009.5
20260510061455 12 215 0.0 3.2 0.00 1.37 0.28 94 1009.5
20260510061355 12 215 0.0 3.2 0.03 1.37 0.28 94 1009.5
20260510061255 12 215 0.0 3.2 0.03 1.37 0.28 94 1009.5
20260510060855 12 215 0.0 3.2 0.03 1.37 0.28 94 1009.6
20260510060756 12 215 1.6 3.2 0.03 1.37 0.28 94 1009.7
20260510060656 12 215 1.6 3.2 0.05 1.37 0.28 94 1009.7
20260510060556 12 215 1.6 3.2 0.05 1.37 0.28 94 1009.8
20260510060455 12 215 1.6 3.2 0.08 1.37 0.28 94 1009.7
20260510060355 12 215 0.0 3.2 0.08 1.37 0.28 94 1009.7
20260510060255 12 215 1.6 3.2 0.10 1.37 0.28 94 1009.8
20260510060155 12 215 1.6 3.2 0.10 1.37 0.28 94 1009.8
20260510060055 12 215 0.0 3.2 0.10 1.37 0.28 94 1009.7
20260510055957 12 215 3.2 3.2 0.10 1.37 0.28 94 1009.7
20260510055855 12 215 0.0 3.2 0.10 1.37 0.28 94 1009.7
20260510055754 12 215 0.0 3.2 0.13 1.37 0.28 94 1009.7
20260510055656 12 215 0.0 3.2 0.15 1.37 0.28 94 1009.7
20260510055555 12 215 0.0 3.2 0.18 1.37 0.28 94 1009.7
20260510055255 12 205 1.6 6.4 0.23 1.37 0.28 94 1009.7
20260510054954 12 144 1.6 6.4 0.23 1.37 0.28 94 1009.8
20260510054755 12 196 0.0 8.0 0.23 1.37 0.28 95 1009.9
20260510054654 12 166 1.6 8.0 0.23 1.37 0.28 95 1010.1
20260510054555 12 217 4.8 12.9 0.23 1.37 0.28 95 1010.2
20260510054455 12 92 1.6 12.9 0.23 1.37 0.28 94 1010.3
20260510054354 12 342 0.0 12.9 0.23 1.37 0.28 94 1010.4
20260510054255 12 37 0.0 12.9 0.23 1.37 0.28 94 1010.3
20260510054155 12 37 3.2 12.9 0.25 1.37 0.28 94 1010.4
20260510054055 12 44 4.8 12.9 0.25 1.37 0.28 94 1010.7
20260510053956 12 40 6.4 12.9 0.25 1.37 0.28 94 1010.8
20260510053855 12 24 3.2 12.9 0.25 1.37 0.28 94 1010.9
20260510053754 12 5 4.8 12.9 0.25 1.37 0.28 94 1010.9
20260510053655 12 343 3.2 8.0 0.25 1.37 0.28 94 1010.9
20260510053554 12 325 1.6 8.0 0.25 1.37 0.28 94 1010.8
20260510053455 12 338 3.2 8.0 0.25 1.37 0.28 94 1010.8
20260510053355 12 304 3.2 8.0 0.28 1.37 0.28 94 1010.7
20260510053256 12 349 1.6 3.2 0.28 1.37 0.28 95 1010.6
20260510053155 12 311 3.2 3.2 0.28 1.37 0.28 94 1010.5
20260510053054 12 330 3.2 3.2 0.28 1.37 0.28 94 1010.2
20260510052755 12 92 1.6 1.6 0.28 1.37 0.28 94 1009.8
20260510052554 12 92 1.6 1.6 0.28 1.37 0.28 94 1009.8
20260510052455 12 92 1.6 1.6 0.28 1.37 0.28 94 1009.7
20260510052355 12 95 0.0 3.2 0.28 1.37 0.28 94 1009.8
20260510052254 12 95 0.0 3.2 0.28 1.37 0.28 94 1009.7
20260510052155 12 95 0.0 3.2 0.28 1.37 0.28 94 1009.8
20260510052054 12 95 0.0 3.2 0.28 1.37 0.28 94 1009.9
20260510051955 12 95 0.0 3.2 0.28 1.37 0.28 94 1009.7
20260510051854 12 95 1.6 3.2 0.28 1.37 0.28 94 1009.8
20260510051754 12 95 0.0 3.2 0.28 1.37 0.28 94 1009.8
20260510051653 12 95 0.0 3.2 0.28 1.37 0.28 94 1009.7
20260510051555 12 95 1.6 4.8 0.28 1.37 0.28 94 1009.9
20260510051455 12 94 3.2 4.8 0.28 1.37 0.28 94 1010.1
20260510051355 12 360 0.0 6.4 0.25 1.35 0.25 94 1010.2
20260510051255 12 355 0.0 6.4 0.25 1.35 0.25 94 1010.4
20260510051154 12 355 0.0 6.4 0.25 1.35 0.25 94 1010.4
20260510050955 12 355 1.6 6.4 0.25 1.35 0.25 94 1010.2
20260510050855 12 355 0.0 6.4 0.25 1.35 0.25 94 1010.1
20260510050755 12 339 1.6 6.4 0.23 1.32 0.23 94 1010.1
20260510050654 12 328 1.6 6.4 0.23 1.32 0.23 94 1010.1
20260510050555 12 355 4.8 6.4 0.20 1.30 0.20 94 1010.1
20260510050455 12 360 3.2 6.4 0.20 1.30 0.20 94 1010.2
20260510050355 12 5 4.8 4.8 0.20 1.30 0.20 94 1010.2
20260510050254 12 9 1.6 4.8 0.18 1.27 0.18 94 1010.3
20260510050155 12 355 4.8 4.8 0.18 1.27 0.18 94 1010.3
20260510050055 12 360 3.2 4.8 0.18 1.27 0.18 94 1010.4
20260510045958 12 341 3.2 4.8 0.18 1.27 0.18 94 1010.4
20260510045859 12 325 3.2 4.8 0.18 1.27 0.18 94 1010.4
20260510045758 12 346 1.6 3.2 0.15 1.24 0.15 94 1010.4
20260510045657 12 355 1.6 3.2 0.13 1.22 0.13 94 1010.1
20260510045458 12 342 3.2 3.2 0.08 1.17 0.08 94 1009.9
20260510045358 12 281 0.0 3.2 0.05 1.14 0.05 94 1010.0
20260510045257 12 281 0.0 3.2 0.05 1.14 0.05 94 1009.9
20260510045158 12 259 1.6 1.6 0.05 1.14 0.05 94 1009.8
20260510044959 12 255 0.0 0.0 0.05 1.14 0.05 94 1009.8
20260510044858 12 255 0.0 0.0 0.05 1.14 0.05 94 1009.9
20260510044758 12 255 0.0 0.0 0.05 1.14 0.05 94 1009.9
20260510044658 12 255 0.0 0.0 0.05 1.14 0.05 94 1009.8
20260510044557 12 255 0.0 0.0 0.05 1.14 0.05 94 1009.8
20260510044459 12 255 0.0 1.6 0.05 1.14 0.05 94 1009.7
20260510044359 12 255 0.0 1.6 0.05 1.14 0.05 94 1009.8
20260510044157 12 255 0.0 1.6 0.03 1.12 0.03 94 1009.8
20260510043957 12 255 0.0 3.2 0.03 1.12 0.03 94 1009.8
20260510043857 12 255 0.0 3.2 0.03 1.12 0.03 94 1009.9
20260510043758 12 255 0.0 3.2 0.03 1.12 0.03 94 1009.8
20260510043657 12 255 0.0 3.2 0.03 1.12 0.03 94 1009.8
20260510043557 12 255 0.0 3.2 0.03 1.12 0.03 94 1009.9
20260510043457 12 255 0.0 3.2 0.03 1.12 0.03 94 1009.8
20260510043358 12 255 0.0 3.2 0.03 1.12 0.03 94 1009.8
20260510043158 12 255 1.6 3.2 0.00 1.09 0.00 94 1009.8
20260510043058 12 255 1.6 3.2 0.00 1.09 0.00 94 1009.8
20260510042958 12 255 1.6 3.2 0.00 1.09 0.00 94 1009.7
20260510042858 12 255 1.6 3.2 0.00 1.09 0.00 94 1009.7
20260510042757 12 255 3.2 3.2 0.00 1.09 0.00 94 1009.6
20260510042658 12 255 0.0 3.2 0.00 1.09 0.00 94 1009.5
20260510042558 12 252 1.6 3.2 0.00 1.09 0.00 94 1009.5
20260510042357 12 268 1.6 3.2 0.00 1.09 0.00 94 1009.5
20260510042259 12 28 0.0 1.6 0.00 1.09 0.00 94 1009.5
20260510042159 12 28 0.0 1.6 0.00 1.09 0.00 94 1009.4
20260510042057 12 28 1.6 1.6 0.00 1.09 0.00 94 1009.4
20260510041957 12 112 0.0 1.6 0.00 1.09 0.00 94 1009.4
20260510041559 12 112 0.0 1.6 0.00 1.09 0.00 94 1009.4
20260510041458 12 112 1.6 1.6 0.00 1.09 0.00 94 1009.4
20260510041358 12 112 0.0 0.0 0.00 1.09 0.00 94 1009.4
20260510041258 12 112 0.0 0.0 0.00 1.09 0.00 94 1009.4
20260510041157 12 112 0.0 0.0 0.00 1.09 0.00 94 1009.4
20260510040957 12 112 0.0 0.0 0.03 1.09 0.00 94 1009.5
20260510040857 12 112 0.0 1.6 0.03 1.09 0.00 94 1009.4
20260510040757 12 112 0.0 3.2 0.03 1.09 0.00 94 1009.4
20260510040658 12 112 0.0 3.2 0.03 1.09 0.00 94 1009.4
20260510040558 12 112 0.0 3.2 0.03 1.09 0.00 94 1009.5
20260510040457 12 112 0.0 3.2 0.03 1.09 0.00 94 1009.5
20260510040358 12 112 0.0 3.2 0.05 1.09 0.00 94 1009.5
20260510040258 12 112 0.0 3.2 0.05 1.09 0.00 94 1009.5
20260510040158 12 112 0.0 3.2 0.05 1.09 0.00 94 1009.5
20260510040058 12 112 0.0 3.2 0.08 1.09 0.00 94 1009.6
20260510035957 12 112 1.6 3.2 0.08 1.12 1.09 94 1009.5
20260510035857 12 184 1.6 3.2 0.10 1.12 1.09 94 1009.6
20260510035757 12 192 0.0 1.6 0.10 1.12 1.09 94 1009.6
20260510035656 12 192 1.6 1.6 0.13 1.12 1.09 94 1009.6
20260510035556 12 192 1.6 1.6 0.15 1.12 1.09 94 1009.5
20260510035457 12 192 0.0 1.6 0.15 1.12 1.09 94 1009.5
20260510035357 12 192 0.0 1.6 0.18 1.12 1.09 94 1009.6
20260510035256 12 192 0.0 1.6 0.18 1.12 1.09 94 1009.5
20260510035157 11 192 0.0 1.6 0.20 1.12 1.09 94 1009.5
20260510035057 12 192 0.0 1.6 0.23 1.12 1.09 94 1009.5
20260510034857 11 192 0.0 0.0 0.28 1.12 1.09 93 1009.6
20260510034757 11 192 0.0 1.6 0.28 1.12 1.09 93 1009.5
20260510034657 12 192 0.0 1.6 0.30 1.12 1.09 93 1009.4
20260510034556 12 192 0.0 1.6 0.30 1.12 1.09 93 1009.5
20260510034457 12 192 0.0 1.6 0.30 1.12 1.09 93 1009.5
20260510034357 12 192 0.0 1.6 0.33 1.12 1.09 93 1009.5
20260510034256 12 192 0.0 1.6 0.33 1.12 1.09 93 1009.6
20260510034156 12 192 0.0 1.6 0.33 1.12 1.09 93 1009.5
20260510034056 12 192 0.0 1.6 0.36 1.12 1.09 93 1009.5
20260510033957 12 192 0.0 1.6 0.38 1.12 1.09 93 1009.6
20260510033858 12 192 0.0 1.6 0.41 1.12 1.09 93 1009.6
20260510033758 12 192 0.0 1.6 0.48 1.12 1.09 93 1009.6
20260510033657 12 192 0.0 1.6 0.48 1.12 1.09 93 1009.5
20260510033557 12 192 1.6 1.6 0.51 1.12 1.09 93 1009.6
20260510033457 12 192 0.0 1.6 0.53 1.12 1.09 93 1009.6
20260510033256 12 192 0.0 1.6 0.56 1.12 1.09 93 1009.5
20260510033156 12 192 0.0 3.2 0.58 1.12 1.09 93 1009.5
20260510033058 12 192 0.0 3.2 0.58 1.12 1.09 93 1009.5
20260510032857 12 192 0.0 3.2 0.64 1.12 1.09 92 1009.6
20260510032757 12 192 0.0 3.2 0.66 1.12 1.09 92 1009.5
20260510032657 12 192 0.0 3.2 0.71 1.12 1.09 92 1009.5
20260510032557 12 192 0.0 3.2 0.74 1.12 1.09 92 1009.5
20260510032457 12 192 0.0 4.8 0.74 1.12 1.09 92 1009.6
20260510032357 12 192 0.0 4.8 0.76 1.12 1.09 92 1009.6
20260510032157 12 105 0.0 4.8 0.81 1.12 1.09 93 1009.7
20260510032056 12 105 1.6 4.8 0.84 1.12 1.09 93 1009.6
20260510031957 12 105 1.6 4.8 0.84 1.12 1.09 93 1009.6
20260510031757 12 105 1.6 4.8 0.84 1.12 1.09 93 1009.7
20260510031657 12 109 3.2 4.8 0.84 1.12 1.09 92 1009.6
20260510031557 12 172 0.0 4.8 0.84 1.12 1.09 92 1009.7
20260510031357 12 205 0.0 4.8 0.84 1.12 1.09 92 1009.7
20260510031257 12 205 0.0 4.8 0.84 1.12 1.09 92 1009.7
20260510031157 12 205 0.0 4.8 0.84 1.12 1.09 92 1009.8
20260510031057 12 215 1.6 4.8 0.81 1.09 1.07 92 1009.7
20260510030956 12 182 3.2 4.8 0.81 1.09 1.07 92 1009.7
20260510030858 12 103 0.0 4.8 0.81 1.09 1.07 92 1009.8
20260510030757 12 103 1.6 4.8 0.81 1.09 1.07 92 1009.8
20260510030657 12 95 3.2 4.8 0.81 1.09 1.07 92 1009.8
20260510030457 12 65 1.6 4.8 0.79 1.07 1.04 92 1010.2
20260510030356 12 49 1.6 4.8 0.79 1.07 1.04 91 1010.3
20260510030256 12 41 1.6 4.8 0.79 1.07 1.04 91 1010.3
20260510030157 12 41 0.0 4.8 0.76 1.04 1.02 91 1010.4
20260510030057 12 34 4.8 4.8 0.76 1.04 1.02 91 1010.4
20260510025957 12 313 0.0 4.8 0.76 1.09 1.02 91 1010.5
20260510025857 12 5 1.6 4.8 0.74 1.07 0.99 91 1010.5
20260510025757 12 42 1.6 4.8 0.71 1.04 0.97 91 1010.6
20260510025657 12 31 3.2 4.8 0.71 1.04 0.97 91 1010.6
20260510025556 12 36 1.6 4.8 0.69 1.02 0.94 91 1010.7
20260510025457 12 36 1.6 4.8 0.69 1.02 0.94 91 1010.7
20260510025357 12 23 4.8 4.8 0.66 0.99 0.91 91 1010.7
20260510025257 12 162 1.6 3.2 0.66 0.99 0.91 91 1010.6
20260510025156 12 19 3.2 3.2 0.64 0.97 0.89 91 1010.8
20260510024957 12 155 1.6 3.2 0.61 0.94 0.86 90 1010.9
20260510024856 12 155 1.6 3.2 0.56 0.89 0.81 90 1010.7
20260510024758 12 142 1.6 3.2 0.56 0.89 0.81 90 1010.8
20260510024657 12 138 3.2 3.2 0.53 0.86 0.79 90 1010.6
20260510024557 12 83 0.0 3.2 0.53 0.86 0.79 90 1010.5
20260510024456 12 83 0.0 3.2 0.53 0.86 0.79 90 1010.4
20260510024356 12 37 1.6 3.2 0.51 0.84 0.76 90 1010.5
20260510024256 12 20 0.0 4.8 0.51 0.84 0.76 89 1010.5
20260510024057 12 23 1.6 14.5 0.48 0.81 0.74 89 1010.5
20260510023956 12 23 0.0 14.5 0.46 0.79 0.71 88 1010.5
20260510023856 13 23 0.0 14.5 0.43 0.76 0.69 88 1010.6
20260510023757 13 23 0.0 14.5 0.36 0.69 0.61 88 1010.5
20260510023656 13 23 0.0 14.5 0.36 0.69 0.61 88 1010.5
20260510023557 13 46 0.0 14.5 0.33 0.66 0.58 87 1010.5
20260510023456 13 339 1.6 14.5 0.30 0.64 0.56 86 1010.4
20260510023357 13 10 6.4 14.5 0.30 0.64 0.56 86 1010.3
20260510023256 13 355 3.2 17.7 0.28 0.61 0.53 86 1010.3
20260510023157 13 24 3.2 19.3 0.25 0.58 0.51 85 1010.3
20260510023057 13 27 8.0 19.3 0.23 0.56 0.48 85 1010.5
20260510022857 13 274 4.8 19.3 0.20 0.53 0.46 83 1010.6
20260510022757 13 337 1.6 19.3 0.18 0.51 0.43 82 1010.7
20260510022658 14 77 3.2 19.3 0.13 0.46 0.38 81 1010.5
20260510022557 14 69 3.2 19.3 0.10 0.43 0.36 80 1010.3
20260510022457 15 9 14.5 19.3 0.10 0.43 0.36 79 1010.2
20260510022357 15 12 17.7 19.3 0.08 0.41 0.33 78 1010.2
20260510022257 15 9 6.4 16.1 0.08 0.41 0.33 77 1010.2
20260510022156 15 338 3.2 16.1 0.03 0.36 0.28 76 1010.3
20260510022056 15 9 4.8 20.9 0.00 0.33 0.25 75 1010.3
20260510021956 15 86 12.9 20.9 0.00 0.33 0.25 74 1010.4
20260510021856 15 323 6.4 24.1 0.00 0.33 0.25 73 1010.2
20260510021757 15 257 3.2 24.1 0.00 0.33 0.25 71 1010.0
20260510021657 16 257 6.4 24.1 0.00 0.33 0.25 70 1009.8
20260510021556 16 111 4.8 24.1 0.00 0.33 0.25 69 1009.8
20260510021457 16 184 3.2 24.1 0.00 0.33 0.25 69 1009.8
20260510021355 16 267 3.2 24.1 0.00 0.33 0.25 69 1009.7
20260510021257 16 300 4.8 24.1 0.00 0.33 0.25 68 1009.7
20260510021157 16 346 3.2 24.1 0.00 0.33 0.25 68 1009.6
20260510021057 16 344 9.7 9.7 0.00 0.33 0.25 68 1009.7
20260510020957 16 310 3.2 6.4 0.00 0.33 0.25 68 1009.4
20260510020857 16 325 3.2 6.4 0.00 0.33 0.25 69 1009.1
20260510020757 16 344 4.8 4.8 0.00 0.33 0.25 69 1008.9
20260510020657 16 331 3.2 3.2 0.00 0.33 0.25 68 1008.8
20260510020556 16 221 1.6 1.6 0.00 0.33 0.25 69 1008.7
20260510020456 16 222 1.6 3.2 0.00 0.33 0.25 70 1008.6
20260510020356 16 222 0.0 3.2 0.00 0.33 0.25 69 1008.6
20260510020259 16 221 0.0 3.2 0.00 0.33 0.25 69 1008.4
20260510015957 16 221 0.0 4.8 0.00 0.33 0.25 69 1008.4
20260510015857 16 221 1.6 4.8 0.00 0.33 0.25 68 1008.3
20260510015559 16 233 1.6 4.8 0.00 0.33 0.25 68 1008.2
20260510015458 16 236 1.6 4.8 0.00 0.33 0.25 68 1008.2
20260510015357 16 196 1.6 4.8 0.00 0.33 0.25 68 1008.2
20260510015257 16 248 1.6 4.8 0.00 0.33 0.25 68 1008.2
20260510015159 16 198 1.6 4.8 0.00 0.33 0.25 68 1008.1
20260510015057 16 200 1.6 4.8 0.00 0.33 0.25 67 1008.1
20260510014858 16 208 3.2 6.4 0.00 0.33 0.25 68 1008.1
20260510014758 16 230 4.8 6.4 0.00 0.33 0.25 68 1008.0
20260510014658 16 261 1.6 11.3 0.00 0.33 0.25 67 1008.0
20260510014558 16 188 1.6 11.3 0.00 0.33 0.25 66 1008.0
20260510014457 16 173 1.6 11.3 0.00 0.33 0.25 67 1008.0
20260510014359 16 228 1.6 11.3 0.00 0.33 0.25 67 1008.0
20260510014258 16 233 1.6 11.3 0.00 0.33 0.25 66 1007.8
20260510014158 16 187 4.8 11.3 0.00 0.33 0.25 66 1007.8
20260510014058 16 233 1.6 11.3 0.00 0.33 0.25 67 1007.8
20260510013957 16 205 1.6 11.3 0.00 0.33 0.25 67 1007.8
20260510013858 16 266 3.2 11.3 0.00 0.33 0.25 67 1007.8
20260510013757 16 197 1.6 6.4 0.00 0.33 0.25 67 1007.8
20260510013557 16 210 3.2 6.4 0.00 0.33 0.25 67 1007.8
20260510013356 16 213 1.6 6.4 0.00 0.33 0.25 68 1007.8
20260510013257 16 209 1.6 6.4 0.00 0.33 0.25 67 1007.8
20260510013158 15 220 3.2 6.4 0.00 0.33 0.25 68 1007.8
20260510013057 15 234 0.0 6.4 0.00 0.33 0.25 68 1007.7
20260510012958 15 248 1.6 6.4 0.00 0.33 0.25 68 1007.7
20260510012858 15 241 1.6 6.4 0.00 0.33 0.25 69 1007.7
20260510012658 15 178 3.2 6.4 0.00 0.33 0.25 69 1007.6
20260510012459 15 244 1.6 3.2 0.00 0.33 0.25 69 1007.6
20260510012357 15 244 0.0 3.2 0.00 0.33 0.25 69 1007.6
20260510012257 15 244 0.0 3.2 0.00 0.33 0.25 69 1007.6
20260510012158 15 244 1.6 3.2 0.00 0.33 0.25 69 1007.6
20260510011957 15 244 1.6 3.2 0.00 0.33 0.25 68 1007.6
20260510011857 15 244 0.0 3.2 0.00 0.33 0.25 68 1007.6
20260510011758 15 244 1.6 3.2 0.00 0.33 0.25 68 1007.5
20260510011658 15 244 1.6 3.2 0.00 0.33 0.25 67 1007.6
20260510011558 15 244 0.0 4.8 0.00 0.33 0.25 68 1007.6
20260510011457 15 244 1.6 6.4 0.00 0.33 0.25 67 1007.6
20260510011358 15 244 1.6 6.4 0.00 0.33 0.25 67 1007.6
20260510011259 15 244 1.6 6.4 0.00 0.33 0.25 67 1007.5
20260510011158 16 244 0.0 6.4 0.00 0.33 0.25 67 1007.5
20260510011057 16 244 0.0 6.4 0.00 0.33 0.25 66 1007.5
20260510010858 16 248 1.6 6.4 0.00 0.33 0.25 66 1007.5
20260510010656 16 228 4.8 8.0 0.00 0.33 0.25 65 1007.5
20260510010459 16 260 3.2 8.0 0.00 0.33 0.25 66 1007.5
20260510010357 16 233 1.6 8.0 0.00 0.33 0.25 66 1007.5
20260510010258 16 230 1.6 8.0 0.00 0.33 0.25 65 1007.5
20260510010157 16 238 1.6 8.0 0.00 0.33 0.25 66 1007.4
20260510010057 16 297 3.2 8.0 0.00 0.33 0.25 65 1007.4
20260510005957 16 227 1.6 8.0 0.00 0.33 0.25 66 1007.4
20260510005857 16 214 1.6 8.0 0.00 0.33 0.25 66 1007.4
20260510005755 16 200 4.8 9.7 0.00 0.33 0.25 66 1007.4
20260510005656 16 225 1.6 3.2 0.00 0.33 0.25 66 1007.4
20260510005557 16 225 0.0 3.2 0.00 0.33 0.25 65 1007.4
20260510005458 16 213 1.6 6.4 0.00 0.33 0.25 65 1007.5
20260510005357 16 208 0.0 6.4 0.00 0.33 0.25 65 1007.4
20260510005257 16 206 0.0 6.4 0.00 0.33 0.25 65 1007.4
20260510005157 16 205 1.6 6.4 0.00 0.33 0.25 65 1007.4
20260510004956 16 227 1.6 6.4 0.00 0.33 0.25 64 1007.5
20260510004858 16 227 1.6 8.0 0.00 0.33 0.25 64 1007.4
20260510004758 16 227 1.6 8.0 0.00 0.33 0.25 64 1007.4
20260510004657 16 201 0.0 8.0 0.00 0.33 0.25 64 1007.5
20260510004557 16 182 4.8 8.0 0.00 0.33 0.25 63 1007.4
20260510004456 16 207 1.6 8.0 0.00 0.33 0.25 64 1007.4
20260510004256 16 250 1.6 8.0 0.00 0.33 0.25 63 1007.5
20260510004158 16 248 3.2 8.0 0.00 0.33 0.25 63 1007.4
20260510003957 16 204 1.6 6.4 0.00 0.33 0.25 63 1007.5
20260510003756 16 257 1.6 6.4 0.00 0.33 0.25 63 1007.4
20260510003657 16 256 1.6 9.7 0.00 0.33 0.25 63 1007.4
20260510003457 17 261 3.2 9.7 0.00 0.33 0.25 62 1007.3
20260510003357 17 208 1.6 9.7 0.00 0.33 0.25 62 1007.4
20260510003257 17 235 1.6 9.7 0.00 0.33 0.25 62 1007.4
20260510003156 17 259 0.0 16.1 0.00 0.33 0.25 62 1007.3
20260510003056 17 259 3.2 16.1 0.00 0.33 0.25 61 1007.3
20260510002957 17 202 1.6 16.1 0.00 0.33 0.25 61 1007.3
20260510002856 17 236 3.2 16.1 0.00 0.33 0.25 61 1007.3
20260510002756 17 245 1.6 16.1 0.00 0.33 0.25 61 1007.4
20260510002656 17 230 3.2 16.1 0.00 0.33 0.25 61 1007.3
20260510002557 17 206 1.6 16.1 0.00 0.33 0.25 61 1007.3
20260510002457 17 246 4.8 16.1 0.00 0.33 0.25 61 1007.3
20260510002356 17 260 4.8 16.1 0.00 0.33 0.25 61 1007.3
20260510002256 17 189 6.4 12.9 0.00 0.33 0.25 61 1007.3
20260510001956 17 239 3.2 12.9 0.00 0.33 0.25 62 1007.3
20260510001857 17 269 3.2 12.9 0.00 0.33 0.25 61 1007.3
20260510001657 17 246 1.6 12.9 0.00 0.33 0.25 61 1007.4
20260510001557 17 222 4.8 12.9 0.00 0.33 0.25 61 1007.3
20260510001456 17 240 3.2 8.0 0.00 0.33 0.25 61 1007.3
20260510001257 17 246 0.0 9.7 0.00 0.33 0.25 61 1007.3
20260510001156 17 240 3.2 14.5 0.00 0.33 0.25 61 1007.3
20260510001057 17 226 3.2 14.5 0.00 0.33 0.25 60 1007.3
20260510000956 17 243 3.2 14.5 0.00 0.33 0.25 60 1007.2
20260510000856 17 259 1.6 14.5 0.00 0.33 0.25 59 1007.3
20260510000756 17 184 3.2 14.5 0.00 0.33 0.25 60 1007.2
20260510000556 17 166 8.0 14.5 0.00 0.33 0.25 59 1007.1
20260510000457 17 197 3.2 14.5 0.00 0.33 0.25 60 1007.1
20260510000356 17 270 4.8 14.5 0.00 0.33 0.25 59 1007.1
20260510000256 17 223 4.8 11.3 0.00 0.33 0.25 60 1007.1
20260510000156 17 205 4.8 9.7 0.00 0.33 0.25 60 1007.1
20260510000056 17 192 1.6 9.7 0.00 0.33 0.25 60 1007.1
20260509235956 17 196 6.4 9.7 0.00 0.33 0.25 59 1007.1
20260509235757 17 235 3.2 9.7 0.00 0.33 0.25 59 1007.0
20260509235657 17 224 1.6 9.7 0.00 0.33 0.25 59 1007.0
20260509235557 17 219 3.2 9.7 0.00 0.33 0.25 59 1007.0
20260509235456 17 232 1.6 9.7 0.00 0.33 0.25 59 1007.0
20260509235357 17 182 3.2 9.7 0.00 0.33 0.25 59 1006.9
20260509235257 17 198 3.2 9.7 0.00 0.33 0.25 59 1007.0
20260509235057 17 259 4.8 11.3 0.00 0.33 0.25 59 1006.9
20260509234856 17 196 0.0 11.3 0.00 0.33 0.25 59 1006.9
20260509234756 17 285 1.6 11.3 0.00 0.33 0.25 59 1007.0
20260509234657 18 180 4.8 11.3 0.00 0.33 0.25 59 1006.9
20260509234557 17 206 4.8 11.3 0.00 0.33 0.25 59 1006.9
20260509234456 17 242 3.2 11.3 0.00 0.33 0.25 59 1006.9
20260509234257 18 259 1.6 11.3 0.00 0.33 0.25 59 1006.9
20260509234156 18 222 4.8 11.3 0.00 0.33 0.25 58 1006.9
20260509234056 18 190 3.2 11.3 0.00 0.33 0.25 58 1006.9
20260509233957 18 284 6.4 11.3 0.00 0.33 0.25 58 1006.9
20260509233856 18 241 1.6 11.3 0.00 0.33 0.25 58 1006.9
20260509233757 18 197 4.8 11.3 0.00 0.33 0.25 58 1006.9
20260509233657 18 161 9.7 11.3 0.00 0.33 0.25 58 1006.8
20260509233556 18 252 3.2 11.3 0.00 0.33 0.25 58 1007.0
20260509233457 18 185 3.2 9.7 0.00 0.33 0.25 59 1006.9
20260509233357 18 157 3.2 9.7 0.00 0.33 0.25 58 1006.9
20260509233156 18 235 1.6 9.7 0.00 0.33 0.25 58 1006.8
20260509233056 18 248 3.2 8.0 0.00 0.33 0.25 59 1006.9
20260509232957 18 252 3.2 8.0 0.00 0.33 0.25 58 1006.9
20260509232856 18 252 3.2 11.3 0.00 0.33 0.25 58 1007.0
20260509232756 18 252 3.2 14.5 0.00 0.33 0.25 58 1006.9
20260509232657 18 184 3.2 16.1 0.00 0.33 0.25 57 1006.9
20260509232556 18 194 3.2 16.1 0.00 0.33 0.25 58 1006.9
20260509232456 18 179 4.8 16.1 0.00 0.33 0.25 57 1006.9
20260509232156 18 179 4.8 16.1 0.00 0.33 0.25 57 1006.9
20260509232056 18 180 8.0 16.1 0.00 0.33 0.25 57 1006.8
20260509231958 18 241 8.0 17.7 0.00 0.33 0.25 57 1006.9
20260509231857 18 255 3.2 17.7 0.00 0.33 0.25 57 1006.9
20260509231757 18 219 1.6 17.7 0.00 0.33 0.25 58 1006.9
20260509231556 18 235 1.6 17.7 0.00 0.33 0.25 57 1006.9
20260509231457 18 152 1.6 17.7 0.00 0.33 0.25 56 1006.9
20260509231357 18 233 3.2 17.7 0.00 0.33 0.25 57 1006.9
20260509231257 18 278 1.6 17.7 0.00 0.33 0.25 57 1006.8
20260509231056 18 290 3.2 14.5 0.00 0.33 0.25 56 1006.7
20260509230956 18 215 4.8 14.5 0.00 0.33 0.25 56 1006.9
20260509230856 18 213 6.4 14.5 0.00 0.33 0.25 56 1006.8
20260509230756 18 275 3.2 14.5 0.00 0.33 0.25 56 1006.7
20260509230557 18 225 6.4 14.5 0.00 0.33 0.25 56 1006.7
20260509230457 18 258 3.2 14.5 0.00 0.33 0.25 56 1006.8
20260509230357 18 244 3.2 14.5 0.00 0.33 0.25 57 1006.7
20260509230257 18 246 3.2 14.5 0.00 0.33 0.25 56 1006.8
20260509230056 18 211 3.2 14.5 0.00 0.33 0.25 57 1006.7
20260509225959 18 269 4.8 12.9 0.00 0.33 0.25 58 1006.7
20260509225857 18 219 3.2 12.9 0.00 0.33 0.25 57 1006.6
20260509225800 18 314 3.2 12.9 0.00 0.33 0.25 57 1006.6
20260509225658 18 202 6.4 12.9 0.00 0.33 0.25 57 1006.6
20260509225558 18 230 1.6 12.9 0.00 0.33 0.25 56 1006.7
20260509225458 18 243 4.8 17.7 0.00 0.33 0.25 56 1006.7
20260509225358 18 182 8.0 17.7 0.00 0.33 0.25 56 1006.7
20260509225258 18 226 11.3 17.7 0.00 0.33 0.25 56 1006.7
20260509225158 18 275 1.6 22.5 0.00 0.33 0.25 55 1006.6
20260509224959 18 278 3.2 22.5 0.00 0.33 0.25 56 1006.7
20260509224858 18 226 4.8 22.5 0.00 0.33 0.25 56 1006.6
20260509224758 18 217 4.8 22.5 0.00 0.33 0.25 56 1006.6
20260509224658 18 212 4.8 22.5 0.00 0.33 0.25 55 1006.6
20260509224558 18 239 8.0 22.5 0.00 0.33 0.25 56 1006.6
20260509224458 18 234 6.4 22.5 0.00 0.33 0.25 55 1006.6
20260509224358 18 146 12.9 24.1 0.00 0.33 0.25 56 1006.7
20260509224258 18 216 6.4 19.3 0.00 0.33 0.25 56 1006.6
20260509224157 19 219 4.8 19.3 0.00 0.33 0.25 56 1006.7
20260509224059 19 275 3.2 19.3 0.00 0.33 0.25 56 1006.7
20260509223858 19 225 12.9 19.3 0.00 0.33 0.25 57 1006.7
20260509223757 19 153 8.0 14.5 0.00 0.33 0.25 56 1006.7
20260509223657 19 248 3.2 14.5 0.00 0.33 0.25 57 1006.7
20260509223457 19 190 3.2 14.5 0.00 0.33 0.25 57 1006.7
20260509223359 19 267 4.8 14.5 0.00 0.33 0.25 56 1006.7
20260509223158 19 213 6.4 14.5 0.00 0.33 0.25 56 1006.7
20260509223057 19 227 3.2 14.5 0.00 0.33 0.25 55 1006.6
20260509222958 19 167 12.9 12.9 0.00 0.33 0.25 56 1006.6
20260509222858 19 263 4.8 8.0 0.00 0.33 0.25 57 1006.6
20260509222758 19 182 1.6 8.0 0.00 0.33 0.25 58 1006.6
20260509222657 19 294 3.2 12.9 0.00 0.33 0.25 58 1006.6
20260509222558 19 261 3.2 12.9 0.00 0.33 0.25 58 1006.6
20260509222457 19 229 1.6 12.9 0.00 0.33 0.25 57 1006.6
20260509222358 19 223 1.6 12.9 0.00 0.33 0.25 58 1006.6
20260509222258 19 230 4.8 12.9 0.00 0.33 0.25 57 1006.6
20260509222157 18 209 1.6 12.9 0.00 0.33 0.25 59 1006.5
20260509222058 18 182 3.2 16.1 0.00 0.33 0.25 58 1006.6
20260509221958 18 168 1.6 16.1 0.00 0.33 0.25 58 1006.6
20260509221758 18 171 11.3 16.1 0.00 0.33 0.25 59 1006.6
20260509221557 19 196 4.8 16.1 0.00 0.33 0.25 59 1006.6
20260509221457 19 262 1.6 16.1 0.00 0.33 0.25 57 1006.6
20260509221357 19 239 4.8 16.1 0.00 0.33 0.25 57 1006.7
20260509221257 19 219 4.8 16.1 0.00 0.33 0.25 57 1006.8
20260509221158 19 270 3.2 14.5 0.00 0.33 0.25 57 1006.7
20260509220857 19 225 3.2 14.5 0.00 0.33 0.25 57 1006.8
20260509220757 19 195 9.7 14.5 0.00 0.33 0.25 57 1006.9
20260509220558 19 169 9.7 11.3 0.00 0.33 0.25 56 1006.8
20260509220457 19 258 4.8 16.1 0.00 0.33 0.25 55 1006.9
20260509220258 20 323 6.4 16.1 0.00 0.33 0.25 56 1006.8
20260509220157 19 215 8.0 16.1 0.00 0.33 0.25 56 1006.8
20260509220058 19 240 3.2 16.1 0.00 0.33 0.25 56 1006.8
20260509215959 19 223 3.2 16.1 0.00 0.33 0.25 56 1006.9
20260509215857 19 265 1.6 16.1 0.00 0.33 0.25 55 1006.9
20260509215756 19 227 8.0 16.1 0.00 0.33 0.25 56 1007.0
20260509215656 19 186 1.6 16.1 0.00 0.33 0.25 55 1006.9
20260509215557 19 191 9.7 17.7 0.00 0.33 0.25 55 1007.0
20260509215457 19 254 3.2 17.7 0.00 0.33 0.25 56 1007.1
20260509215356 19 185 9.7 17.7 0.00 0.33 0.25 56 1007.0
20260509215157 19 268 6.4 17.7 0.00 0.33 0.25 55 1007.0
20260509215056 19 230 3.2 17.7 0.00 0.33 0.25 55 1007.1
20260509214956 19 246 3.2 17.7 0.00 0.33 0.25 56 1007.0
20260509214857 19 230 3.2 17.7 0.00 0.33 0.25 55 1007.1
20260509214557 19 213 4.8 14.5 0.00 0.33 0.25 55 1007.0
20260509214456 20 188 6.4 14.5 0.00 0.33 0.25 55 1007.0
20260509214356 20 246 4.8 16.1 0.00 0.33 0.25 55 1007.0
20260509214256 20 203 12.9 16.1 0.00 0.33 0.25 55 1006.9
20260509214156 20 169 8.0 16.1 0.00 0.33 0.25 57 1007.0
20260509214056 20 290 3.2 16.1 0.00 0.33 0.25 57 1006.9
20260509213957 20 246 3.2 16.1 0.00 0.33 0.25 55 1006.8
20260509213856 20 196 3.2 16.1 0.00 0.33 0.25 56 1006.8
20260509213756 20 263 4.8 16.1 0.00 0.33 0.25 57 1006.8
20260509213557 20 210 6.4 16.1 0.00 0.33 0.25 56 1006.7
20260509213456 20 254 1.6 14.5 0.00 0.33 0.25 56 1006.9
20260509213356 20 247 3.2 14.5 0.00 0.33 0.25 60 1006.8
20260509213256 19 209 3.2 14.5 0.00 0.33 0.25 59 1006.9
20260509213156 19 227 3.2 14.5 0.00 0.33 0.25 58 1006.9
20260509213056 19 253 1.6 14.5 0.00 0.33 0.25 58 1006.9
20260509212956 19 203 3.2 17.7 0.00 0.33 0.25 58 1006.9
20260509212856 19 192 6.4 17.7 0.00 0.33 0.25 58 1006.9
20260509212756 18 231 9.7 17.7 0.00 0.33 0.25 58 1007.0
20260509212656 18 185 8.0 17.7 0.00 0.33 0.25 60 1006.9
20260509212556 18 144 12.9 17.7 0.00 0.33 0.25 58 1007.0
20260509212457 19 164 6.4 17.7 0.00 0.33 0.25 57 1007.0
20260509212357 19 307 4.8 17.7 0.00 0.33 0.25 58 1007.0
20260509212257 19 144 9.7 17.7 0.00 0.33 0.25 58 1007.1
20260509212156 19 223 9.7 17.7 0.00 0.33 0.25 58 1007.1
20260509211957 19 155 3.2 14.5 0.00 0.33 0.25 59 1007.1
20260509211857 19 252 3.2 14.5 0.00 0.33 0.25 58 1007.1
20260509211756 19 184 8.0 14.5 0.00 0.33 0.25 58 1007.1
20260509211657 19 217 11.3 14.5 0.00 0.33 0.25 60 1007.1
20260509211557 19 207 6.4 14.5 0.00 0.33 0.25 59 1007.2
20260509211457 19 245 3.2 14.5 0.00 0.33 0.25 58 1007.2
20260509211357 19 210 3.2 14.5 0.00 0.33 0.25 58 1007.2
20260509211257 20 222 4.8 14.5 0.00 0.33 0.25 58 1007.1
20260509211157 20 222 3.2 14.5 0.00 0.33 0.25 59 1007.2
20260509210956 19 217 3.2 14.5 0.00 0.33 0.25 59 1007.2
20260509210857 19 229 6.4 14.5 0.00 0.33 0.25 58 1007.1
20260509210657 19 251 4.8 14.5 0.00 0.33 0.25 57 1007.2
20260509210556 20 203 3.2 12.9 0.00 0.33 0.25 58 1007.1
20260509210456 20 204 4.8 12.9 0.00 0.33 0.25 59 1007.1
20260509210355 20 219 1.6 12.9 0.00 0.33 0.25 57 1007.0
20260509210257 20 190 4.8 12.9 0.00 0.33 0.25 56 1007.0
20260509210156 19 179 4.8 16.1 0.00 0.33 0.25 58 1007.1
20260509210057 19 194 3.2 16.1 0.00 0.33 0.25 57 1007.1
20260509205957 19 263 6.4 16.1 0.00 0.33 0.25 56 1007.1
20260509205857 19 250 6.4 16.1 0.00 0.33 0.25 57 1007.2
20260509205658 19 214 6.4 16.1 0.00 0.33 0.25 56 1007.2
20260509205556 19 225 1.6 16.1 0.00 0.33 0.25 56 1007.2
20260509205457 20 217 4.8 19.3 0.00 0.33 0.25 56 1007.3
20260509205357 20 202 12.9 19.3 0.00 0.33 0.25 58 1007.3
20260509205257 20 195 6.4 17.7 0.00 0.33 0.25 56 1007.2
20260509205158 20 267 3.2 17.7 0.00 0.33 0.25 58 1007.3
20260509205058 20 196 3.2 17.7 0.00 0.33 0.25 57 1007.3
20260509204957 20 262 3.2 24.1 0.00 0.33 0.25 56 1007.4
20260509204856 20 214 11.3 24.1 0.00 0.33 0.25 57 1007.3
20260509204757 20 221 12.9 24.1 0.00 0.33 0.25 57 1007.5
20260509204657 20 202 6.4 24.1 0.00 0.33 0.25 56 1007.3
20260509204556 20 181 6.4 24.1 0.00 0.33 0.25 58 1007.4
20260509204456 20 211 4.8 24.1 0.00 0.33 0.25 58 1007.4
20260509204356 20 176 3.2 24.1 0.00 0.33 0.25 57 1007.4
20260509204255 20 196 3.2 24.1 0.00 0.33 0.25 57 1007.5
20260509204157 20 130 11.3 19.3 0.00 0.33 0.25 58 1007.5
20260509204056 20 221 3.2 19.3 0.00 0.33 0.25 57 1007.5
20260509203957 20 191 11.3 19.3 0.00 0.33 0.25 57 1007.5
20260509203856 20 229 3.2 19.3 0.00 0.33 0.25 57 1007.5
20260509203756 20 167 19.3 19.3 0.00 0.33 0.25 57 1007.6
20260509203656 20 175 17.7 17.7 0.00 0.33 0.25 59 1007.6
20260509203555 20 197 4.8 11.3 0.00 0.33 0.25 58 1007.6
20260509203457 20 260 1.6 9.7 0.00 0.33 0.25 63 1007.5
20260509203356 20 124 8.0 12.9 0.00 0.33 0.25 58 1007.5
20260509203256 20 246 6.4 12.9 0.00 0.33 0.25 61 1007.5
20260509203156 19 169 3.2 12.9 0.00 0.33 0.25 63 1007.5
20260509203056 19 273 3.2 12.9 0.00 0.33 0.25 60 1007.4
20260509202956 20 194 6.4 12.9 0.00 0.33 0.25 59 1007.5
20260509202900 20 188 4.8 12.9 0.00 0.33 0.25 62 1007.4
20260509202757 20 225 4.8 12.9 0.00 0.33 0.25 59 1007.5
20260509202658 20 271 4.8 12.9 0.00 0.33 0.25 58 1007.4
20260509202557 20 174 14.5 14.5 0.00 0.33 0.25 60 1007.5
20260509202457 20 281 3.2 11.3 0.00 0.33 0.25 61 1007.5
20260509202356 20 261 3.2 12.9 0.00 0.33 0.25 61 1007.4
20260509202256 20 262 4.8 12.9 0.00 0.33 0.25 61 1007.5
20260509202157 20 227 1.6 12.9 0.00 0.33 0.25 66 1007.5
20260509202056 20 218 3.2 12.9 0.00 0.33 0.25 61 1007.5
20260509201857 20 240 3.2 14.5 0.00 0.33 0.25 66 1007.6
20260509201757 20 255 1.6 14.5 0.00 0.33 0.25 64 1007.6
20260509201656 20 278 1.6 14.5 0.00 0.33 0.25 62 1007.6
20260509201556 20 273 3.2 14.5 0.00 0.33 0.25 62 1007.7
20260509201356 19 203 3.2 14.5 0.00 0.33 0.25 60 1007.6
20260509201257 19 216 8.0 14.5 0.00 0.33 0.25 60 1007.6
20260509201057 19 259 1.6 12.9 0.00 0.33 0.25 68 1007.7
20260509200956 18 167 1.6 12.9 0.00 0.33 0.25 67 1007.7
20260509200856 18 225 4.8 16.1 0.00 0.33 0.25 64 1007.7
20260509200757 18 238 12.9 16.1 0.00 0.33 0.25 65 1007.7
20260509200557 18 262 3.2 16.1 0.00 0.33 0.25 65 1007.6
20260509200457 18 160 1.6 16.1 0.00 0.33 0.25 64 1007.8
20260509200357 18 239 4.8 16.1 0.00 0.33 0.25 62 1007.8
20260509200257 18 185 1.6 16.1 0.00 0.33 0.25 64 1007.8
20260509200157 18 273 3.2 16.1 0.00 0.33 0.25 62 1007.8
20260509200057 18 190 14.5 19.3 0.00 0.33 0.25 63 1007.9
20260509195956 18 225 3.2 14.5 0.00 0.33 0.25 62 1007.8
20260509195857 19 166 6.4 17.7 0.00 0.33 0.25 63 1007.8
20260509195756 18 211 4.8 17.7 0.00 0.33 0.25 63 1007.8
20260509195657 18 259 3.2 17.7 0.00 0.33 0.25 63 1007.8
20260509195556 18 194 3.2 17.7 0.00 0.33 0.25 65 1007.9
20260509195456 18 249 3.2 17.7 0.00 0.33 0.25 66 1007.8
20260509195356 18 254 1.6 17.7 0.00 0.33 0.25 66 1007.9
20260509195258 18 241 6.4 17.7 0.00 0.33 0.25 64 1008.0
20260509195157 18 208 12.9 17.7 0.00 0.33 0.25 63 1008.0
20260509195056 18 63 6.4 17.7 0.00 0.33 0.25 63 1008.0
20260509194956 18 250 4.8 16.1 0.00 0.33 0.25 64 1008.0
20260509194857 18 173 4.8 16.1 0.00 0.33 0.25 64 1008.1
20260509194655 18 265 4.8 16.1 0.00 0.33 0.25 68 1008.1
20260509194557 18 250 3.2 16.1 0.00 0.33 0.25 66 1008.0
20260509194457 18 205 3.2 16.1 0.00 0.33 0.25 66 1007.9
20260509194357 18 161 6.4 16.1 0.00 0.33 0.25 64 1008.0
20260509194256 18 222 8.0 16.1 0.00 0.33 0.25 64 1008.0
20260509194156 18 315 1.6 14.5 0.00 0.33 0.25 64 1008.0
20260509194057 18 275 1.6 16.1 0.00 0.33 0.25 64 1008.0
20260509193957 18 261 4.8 16.1 0.00 0.33 0.25 64 1008.0
20260509193857 18 170 12.9 17.7 0.00 0.33 0.25 66 1008.2
20260509193756 18 182 8.0 17.7 0.00 0.33 0.25 65 1008.1
20260509193656 18 261 3.2 17.7 0.00 0.33 0.25 65 1008.1
20260509193558 18 182 1.6 17.7 0.00 0.33 0.25 63 1008.1
20260509193457 18 257 4.8 17.7 0.00 0.33 0.25 63 1008.1
20260509193356 18 229 4.8 17.7 0.00 0.33 0.25 62 1008.2
20260509193257 18 185 12.9 17.7 0.00 0.33 0.25 63 1008.2
20260509193156 18 225 3.2 17.7 0.00 0.33 0.25 62 1008.2
20260509193056 19 205 19.3 19.3 0.00 0.33 0.25 62 1008.2
20260509192957 19 243 4.8 14.5 0.00 0.33 0.25 63 1008.1
20260509192857 19 207 3.2 14.5 0.00 0.33 0.25 64 1008.2
20260509192757 19 197 4.8 14.5 0.00 0.33 0.25 66 1008.1
20260509192657 19 231 8.0 17.7 0.00 0.33 0.25 64 1008.0
20260509192556 19 246 3.2 17.7 0.00 0.33 0.25 67 1008.2
20260509192456 19 219 3.2 17.7 0.00 0.33 0.25 64 1008.1
20260509192256 19 217 6.4 17.7 0.00 0.33 0.25 64 1008.3
20260509192157 19 238 4.8 17.7 0.00 0.33 0.25 64 1008.1
20260509191856 18 215 4.8 20.9 0.00 0.33 0.25 63 1008.3
20260509191656 18 184 1.6 20.9 0.00 0.33 0.25 68 1008.3
20260509191556 18 278 4.8 20.9 0.00 0.33 0.25 67 1008.2
20260509191456 18 213 9.7 20.9 0.00 0.33 0.25 68 1008.3
20260509191358 18 200 8.0 20.9 0.00 0.33 0.25 67 1008.3
20260509191256 18 198 6.4 20.9 0.00 0.33 0.25 69 1008.3
20260509191156 18 261 11.3 20.9 0.00 0.33 0.25 65 1008.4
20260509191057 18 187 6.4 20.9 0.00 0.33 0.25 65 1008.3
20260509190958 18 355 6.4 20.9 0.00 0.33 0.25 68 1008.3
20260509190856 18 163 11.3 20.9 0.00 0.33 0.25 66 1008.4
20260509190756 18 302 12.9 20.9 0.00 0.33 0.25 66 1008.4
20260509190656 18 296 6.4 20.9 0.00 0.33 0.25 66 1008.4
20260509190456 18 237 8.0 20.9 0.00 0.33 0.25 68 1008.4
20260509190357 18 259 4.8 22.5 0.00 0.33 0.25 70 1008.5
20260509190156 17 217 4.8 22.5 0.00 0.33 0.25 67 1008.5
20260509190056 17 294 4.8 22.5 0.00 0.33 0.25 65 1008.4
20260509185957 18 290 3.2 22.5 0.00 0.33 0.25 66 1008.5
20260509185856 17 253 8.0 17.7 0.00 0.33 0.25 67 1008.5
20260509185758 18 279 9.7 17.7 0.00 0.33 0.25 66 1008.5
20260509185657 18 224 4.8 17.7 0.00 0.33 0.25 64 1008.5
20260509185456 18 176 4.8 14.5 0.00 0.33 0.25 68 1008.7
20260509185356 18 192 3.2 14.5 0.00 0.33 0.25 67 1008.5
20260509185256 18 217 3.2 17.7 0.00 0.33 0.25 68 1008.6
20260509185156 18 239 6.4 17.7 0.00 0.33 0.25 72 1008.6
20260509185056 17 286 1.6 17.7 0.00 0.33 0.25 68 1008.6
20260509184956 17 235 1.6 22.5 0.00 0.33 0.25 67 1008.6
20260509184855 18 246 1.6 22.5 0.00 0.33 0.25 67 1008.6
20260509184756 17 279 11.3 22.5 0.00 0.33 0.25 66 1008.6
20260509184656 17 215 4.8 22.5 0.00 0.33 0.25 68 1008.6
20260509184556 17 246 4.8 22.5 0.00 0.33 0.25 67 1008.8
20260509184456 17 216 8.0 22.5 0.00 0.33 0.25 68 1008.6
20260509184356 17 278 4.8 22.5 0.00 0.33 0.25 69 1008.7
20260509184158 17 213 9.7 22.5 0.00 0.33 0.25 66 1008.6
20260509184057 17 239 6.4 16.1 0.00 0.33 0.25 67 1008.6
20260509183957 17 227 6.4 14.5 0.00 0.33 0.25 70 1008.8
20260509183856 17 265 3.2 16.1 0.00 0.33 0.25 69 1008.5
20260509183558 17 277 6.4 16.1 0.00 0.33 0.25 67 1008.6
20260509183456 17 214 6.4 16.1 0.00 0.33 0.25 69 1008.6
20260509183258 17 173 11.3 16.1 0.00 0.33 0.25 72 1008.5
20260509183157 17 202 3.2 16.1 0.00 0.33 0.25 70 1008.6
20260509183057 17 183 11.3 16.1 0.00 0.33 0.25 70 1008.6
20260509182956 17 203 9.7 12.9 0.00 0.33 0.25 72 1008.7
20260509182856 17 277 3.2 14.5 0.00 0.33 0.25 72 1008.6
20260509182758 17 209 4.8 14.5 0.00 0.33 0.25 75 1008.6
20260509182657 16 277 1.6 14.5 0.00 0.33 0.25 74 1008.7
20260509182557 16 240 1.6 14.5 0.00 0.33 0.25 72 1008.7
20260509182456 16 253 1.6 14.5 0.00 0.33 0.25 72 1008.8
20260509182355 16 223 3.2 14.5 0.00 0.33 0.25 71 1008.8
20260509182256 16 214 6.4 14.5 0.00 0.33 0.25 70 1008.8
20260509182157 16 292 4.8 14.5 0.00 0.33 0.25 70 1008.7
20260509182057 16 298 1.6 14.5 0.00 0.33 0.25 70 1008.7
20260509181956 17 214 6.4 12.9 0.00 0.33 0.25 72 1008.9
20260509181856 17 213 1.6 12.9 0.00 0.33 0.25 72 1008.8
20260509181757 17 217 1.6 12.9 0.00 0.33 0.25 71 1008.8
20260509181656 17 242 3.2 12.9 0.00 0.33 0.25 72 1008.9
20260509181556 17 201 1.6 12.9 0.00 0.33 0.25 72 1008.8
20260509181357 17 248 4.8 14.5 0.00 0.33 0.25 71 1008.8
20260509181256 17 202 1.6 14.5 0.00 0.33 0.25 70 1008.8
20260509181156 17 167 9.7 14.5 0.00 0.33 0.25 70 1008.8
20260509181056 17 282 4.8 20.9 0.00 0.33 0.25 72 1008.9
20260509180857 17 236 3.2 20.9 0.00 0.33 0.25 70 1008.9
20260509180756 17 232 8.0 20.9 0.00 0.33 0.25 71 1008.8
20260509180656 17 205 6.4 20.9 0.00 0.33 0.25 70 1008.8
20260509180357 17 195 3.2 20.9 0.00 0.33 0.25 70 1008.9
20260509180257 17 202 12.9 20.9 0.00 0.33 0.25 71 1008.9
20260509180056 17 228 3.2 14.5 0.00 0.33 0.25 74 1008.9
20260509175957 17 175 3.2 14.5 0.00 0.33 0.25 73 1008.8
20260509175856 17 219 3.2 14.5 0.00 0.33 0.25 73 1008.9
20260509175756 17 218 6.4 14.5 0.00 0.33 0.25 74 1008.8
20260509175657 17 241 1.6 14.5 0.00 0.33 0.25 74 1008.9
20260509175557 17 173 3.2 14.5 0.00 0.33 0.25 73 1008.9
20260509175457 16 182 6.4 14.5 0.00 0.33 0.25 74 1008.9
20260509175357 16 207 4.8 14.5 0.00 0.33 0.25 73 1008.8
20260509175256 16 282 9.7 14.5 0.00 0.33 0.25 74 1008.9
20260509175157 16 231 3.2 12.9 0.00 0.33 0.25 72 1008.8
20260509175057 16 241 4.8 12.9 0.00 0.33 0.25 73 1008.9
20260509174856 16 229 6.4 12.9 0.00 0.33 0.25 75 1008.8
20260509174656 16 185 4.8 9.7 0.00 0.33 0.25 74 1008.9
20260509174557 16 137 6.4 9.7 0.00 0.33 0.25 75 1008.9
20260509174457 16 258 1.6 9.7 0.00 0.33 0.25 75 1008.9
20260509174358 16 241 4.8 9.7 0.00 0.33 0.25 76 1008.9
20260509174256 16 246 8.0 9.7 0.00 0.33 0.25 73 1008.9
20260509174156 16 235 3.2 9.7 0.00 0.33 0.25 75 1008.9
20260509174056 16 316 3.2 9.7 0.00 0.33 0.25 75 1008.9
20260509173956 16 81 1.6 9.7 0.00 0.33 0.25 76 1008.8
20260509173857 16 232 1.6 9.7 0.00 0.33 0.25 73 1008.9
20260509173756 16 272 3.2 9.7 0.00 0.33 0.25 75 1008.9
20260509173656 16 177 3.2 9.7 0.00 0.33 0.25 75 1008.9
20260509173556 16 241 3.2 14.5 0.00 0.33 0.25 75 1008.9
20260509173456 16 170 1.6 14.5 0.00 0.33 0.25 78 1008.9
20260509173356 16 254 3.2 14.5 0.00 0.33 0.25 78 1008.9
20260509173157 16 246 3.2 14.5 0.00 0.33 0.25 74 1008.9
20260509172856 15 199 6.4 14.5 0.00 0.33 0.25 78 1008.9
20260509172756 15 254 3.2 14.5 0.00 0.33 0.25 76 1009.0
20260509172656 16 236 4.8 9.7 0.00 0.33 0.25 78 1008.9
20260509172558 16 271 3.2 9.7 0.00 0.33 0.25 77 1008.9
20260509172457 16 239 1.6 9.7 0.00 0.33 0.25 77 1008.9
20260509172357 16 239 3.2 11.3 0.00 0.33 0.25 78 1008.9
20260509172156 16 169 3.2 11.3 0.00 0.33 0.25 77 1008.9
20260509172056 16 244 1.6 17.7 0.00 0.33 0.25 75 1008.9
20260509171958 16 231 1.6 17.7 0.00 0.33 0.25 76 1008.9
20260509171901 16 179 9.7 17.7 0.00 0.33 0.25 75 1008.8
20260509171756 16 259 6.4 17.7 0.00 0.33 0.25 76 1008.8
20260509171656 16 238 1.6 17.7 0.00 0.33 0.25 76 1008.8
20260509171256 15 204 6.4 17.7 0.00 0.33 0.25 77 1008.7
20260509171157 15 273 3.2 17.7 0.00 0.33 0.25 77 1008.8
20260509171056 15 186 9.7 12.9 0.00 0.33 0.25 78 1008.8
20260509170958 15 238 1.6 12.9 0.00 0.33 0.25 77 1008.8
20260509170856 15 219 4.8 12.9 0.00 0.33 0.25 77 1008.8
20260509170757 15 266 3.2 12.9 0.00 0.33 0.25 77 1008.7
20260509170600 15 254 4.8 12.9 0.03 0.33 0.25 79 1008.8
20260509170456 15 210 6.4 12.9 0.03 0.33 0.25 78 1008.7
20260509170356 15 251 1.6 12.9 0.03 0.33 0.25 77 1008.8
20260509170256 15 234 3.2 12.9 0.03 0.33 0.25 77 1008.8
20260509170156 15 215 8.0 12.9 0.03 0.33 0.25 79 1008.8
20260509170056 15 232 3.2 12.9 0.03 0.33 0.25 77 1008.8
20260509165958 15 312 3.2 12.9 0.03 0.33 0.25 78 1008.8
20260509165856 15 190 4.8 12.9 0.03 0.33 0.25 77 1008.8
20260509165756 15 225 6.4 14.5 0.03 0.33 0.25 79 1008.7
20260509165656 15 178 4.8 12.9 0.03 0.33 0.25 79 1008.7
20260509165556 15 198 1.6 12.9 0.03 0.33 0.25 78 1008.7
20260509165456 15 198 4.8 12.9 0.03 0.33 0.25 76 1008.8
20260509165356 15 230 3.2 14.5 0.03 0.33 0.25 77 1008.8
20260509165156 15 178 9.7 14.5 0.03 0.33 0.25 79 1008.7
20260509165056 15 173 3.2 14.5 0.03 0.33 0.25 77 1008.7
20260509164956 15 241 4.8 14.5 0.03 0.33 0.25 77 1008.8
20260509164857 15 200 9.7 14.5 0.03 0.33 0.25 77 1008.7
20260509164757 15 238 8.0 14.5 0.03 0.33 0.25 78 1008.7
20260509164656 15 207 3.2 14.5 0.03 0.33 0.25 78 1008.6
20260509164457 15 215 4.8 14.5 0.03 0.33 0.25 80 1008.6
20260509164356 15 182 6.4 14.5 0.03 0.33 0.25 81 1008.6
20260509164256 15 221 1.6 14.5 0.03 0.33 0.25 79 1008.6
20260509164157 15 149 0.0 14.5 0.03 0.33 0.25 81 1008.6
20260509164056 15 213 3.2 14.5 0.03 0.33 0.25 82 1008.6
20260509163857 15 201 3.2 14.5 0.03 0.33 0.25 81 1008.6
20260509163756 15 221 3.2 14.5 0.03 0.33 0.25 80 1008.6
20260509163656 15 279 6.4 16.1 0.03 0.33 0.25 78 1008.7
20260509163557 15 151 4.8 11.3 0.03 0.33 0.25 80 1008.6
20260509163457 15 187 4.8 11.3 0.03 0.33 0.25 82 1008.7
20260509163358 15 242 3.2 11.3 0.03 0.33 0.25 84 1008.6
20260509163256 15 205 3.2 11.3 0.03 0.33 0.25 81 1008.6
20260509163057 15 271 4.8 11.3 0.03 0.33 0.25 84 1008.7
20260509162957 15 229 1.6 11.3 0.03 0.33 0.25 82 1008.6
20260509162856 15 232 6.4 11.3 0.03 0.33 0.25 83 1008.5
20260509162756 15 200 4.8 9.7 0.03 0.33 0.25 85 1008.6
20260509162656 15 221 4.8 9.7 0.03 0.33 0.25 84 1008.5
20260509162556 15 112 3.2 8.0 0.03 0.33 0.25 84 1008.6
20260509162456 15 217 3.2 8.0 0.03 0.33 0.25 82 1008.5
20260509162358 15 257 4.8 8.0 0.03 0.33 0.25 83 1008.6
20260509162256 15 247 3.2 8.0 0.03 0.33 0.25 83 1008.6
20260509162156 15 236 4.8 8.0 0.03 0.33 0.25 83 1008.6
20260509162055 15 194 8.0 8.0 0.03 0.33 0.25 84 1008.7
20260509161957 15 234 3.2 9.7 0.03 0.33 0.25 84 1008.6
20260509161857 15 265 0.0 9.7 0.03 0.33 0.25 85 1008.6
20260509161757 15 171 6.4 9.7 0.03 0.33 0.25 86 1008.6
20260509161657 15 208 1.6 9.7 0.03 0.33 0.25 85 1008.6
20260509161456 15 33 0.0 9.7 0.03 0.33 0.25 85 1008.6
20260509161358 15 181 4.8 9.7 0.03 0.33 0.25 85 1008.6
20260509161256 15 176 3.2 11.3 0.03 0.33 0.25 86 1008.6
20260509161156 15 326 1.6 11.3 0.03 0.33 0.25 87 1008.6
20260509160957 15 186 4.8 11.3 0.03 0.33 0.25 87 1008.8
20260509160857 15 182 1.6 11.3 0.03 0.33 0.25 85 1008.7
20260509160657 15 106 3.2 9.7 0.00 0.30 0.23 91 1008.6
20260509160556 14 220 4.8 8.0 0.00 0.30 0.23 88 1008.6
20260509160457 14 178 3.2 9.7 0.00 0.30 0.23 88 1008.7
20260509160356 14 205 0.0 9.7 0.00 0.30 0.23 89 1008.6
20260509160056 13 167 4.8 9.7 0.03 0.30 0.23 91 1008.6
20260509155956 13 193 3.2 9.7 0.03 0.30 0.23 89 1008.6
20260509155755 13 238 1.6 9.7 0.03 0.30 0.23 89 1008.6
20260509155655 13 215 3.2 9.7 0.03 0.30 0.23 88 1008.7
20260509155556 13 184 9.7 9.7 0.03 0.30 0.23 89 1008.7
20260509155354 13 236 3.2 8.0 0.03 0.30 0.23 90 1008.7
20260509155255 13 155 1.6 9.7 0.03 0.30 0.23 90 1008.8
20260509155156 13 157 8.0 9.7 0.03 0.30 0.23 90 1008.6
20260509155056 13 199 1.6 9.7 0.03 0.30 0.23 91 1008.7
20260509154955 13 246 4.8 9.7 0.03 0.30 0.23 91 1008.6
20260509154855 12 175 4.8 9.7 0.03 0.30 0.23 90 1008.7
20260509154755 12 217 3.2 9.7 0.03 0.30 0.23 90 1008.6
20260509154655 12 197 0.0 9.7 0.03 0.30 0.23 91 1008.5
20260509154556 12 237 0.0 9.7 0.03 0.30 0.23 90 1008.7
20260509154456 12 175 3.2 11.3 0.03 0.30 0.23 91 1008.6
20260509154355 12 206 1.6 9.7 0.03 0.30 0.23 90 1008.7
20260509154155 12 185 0.0 9.7 0.03 0.30 0.23 90 1008.7
20260509154056 12 184 1.6 9.7 0.03 0.30 0.23 90 1008.6
20260509153855 12 253 1.6 11.3 0.03 0.30 0.23 89 1008.7
20260509153555 12 232 4.8 11.3 0.03 0.30 0.23 89 1008.6
20260509153456 12 195 1.6 11.3 0.03 0.30 0.23 90 1008.6
20260509153356 12 215 1.6 11.3 0.03 0.30 0.23 90 1008.6
20260509153155 12 209 1.6 11.3 0.03 0.30 0.23 90 1008.6
20260509153054 12 201 8.0 12.9 0.03 0.30 0.23 91 1008.6
20260509152956 12 177 4.8 8.0 0.03 0.30 0.23 90 1008.6
20260509152856 12 297 4.8 8.0 0.03 0.30 0.23 91 1008.6
20260509152756 12 196 1.6 11.3 0.03 0.30 0.23 91 1008.6
20260509152655 12 176 1.6 11.3 0.03 0.30 0.23 91 1008.6
20260509152555 12 242 1.6 11.3 0.03 0.30 0.23 91 1008.6
20260509152456 12 246 3.2 11.3 0.03 0.30 0.23 92 1008.6
20260509152356 12 273 0.0 11.3 0.03 0.30 0.23 92 1008.5
20260509152156 12 167 1.6 11.3 0.03 0.30 0.23 91 1008.6
20260509152055 12 213 1.6 11.3 0.03 0.30 0.23 91 1008.6
20260509151856 12 183 1.6 8.0 0.03 0.30 0.23 92 1008.6
20260509151755 12 182 3.2 8.0 0.03 0.30 0.23 92 1008.7
20260509151656 12 182 3.2 8.0 0.03 0.30 0.23 93 1008.7
20260509151457 12 198 0.0 6.4 0.03 0.30 0.23 92 1008.7
20260509151355 12 198 1.6 6.4 0.03 0.30 0.23 92 1008.7
20260509151255 12 220 0.0 6.4 0.03 0.30 0.23 92 1008.7
20260509151155 12 220 1.6 6.4 0.03 0.30 0.23 92 1008.7
20260509151055 12 220 0.0 6.4 0.03 0.30 0.23 92 1008.6
20260509150955 12 212 3.2 6.4 0.03 0.30 0.23 92 1008.6
20260509150856 12 174 1.6 4.8 0.03 0.30 0.23 92 1008.6
20260509150755 12 205 1.6 3.2 0.03 0.30 0.23 92 1008.6
20260509150655 12 205 1.6 3.2 0.03 0.30 0.23 92 1008.6
20260509150555 12 205 0.0 4.8 0.03 0.30 0.23 92 1008.6
20260509150456 12 205 1.6 4.8 0.03 0.30 0.23 92 1008.6
20260509150356 12 202 1.6 4.8 0.03 0.30 0.23 92 1008.5
20260509150254 11 215 0.0 4.8 0.03 0.30 0.23 92 1008.5
20260509150155 11 215 1.6 4.8 0.03 0.30 0.23 91 1008.5
20260509150055 11 219 1.6 4.8 0.00 0.28 0.20 91 1008.6
20260509145857 12 270 3.2 4.8 0.00 0.28 0.20 91 1008.6
20260509145756 12 213 1.6 4.8 0.00 0.28 0.20 91 1008.6
20260509145656 12 193 0.0 3.2 0.00 0.28 0.20 91 1008.6
20260509145556 12 193 0.0 3.2 0.00 0.28 0.20 91 1008.6
20260509145456 12 193 0.0 3.2 0.00 0.28 0.20 91 1008.6
20260509145356 12 193 1.6 3.2 0.00 0.28 0.20 91 1008.6
20260509145256 12 197 1.6 3.2 0.00 0.28 0.20 92 1008.6
20260509145157 12 191 0.0 3.2 0.00 0.28 0.20 92 1008.5
20260509145057 12 207 3.2 3.2 0.00 0.28 0.20 92 1008.6
20260509144957 12 209 0.0 4.8 0.00 0.28 0.20 92 1008.6
20260509144756 12 209 1.6 4.8 0.00 0.28 0.20 91 1008.7
20260509144656 12 238 1.6 4.8 0.00 0.28 0.20 92 1008.6
20260509144557 12 260 1.6 8.0 0.00 0.28 0.20 91 1008.6
20260509144356 12 253 3.2 8.0 0.00 0.28 0.20 91 1008.6
20260509144257 12 209 1.6 8.0 0.00 0.28 0.20 91 1008.7
20260509144057 12 232 3.2 8.0 0.00 0.28 0.20 91 1008.6
20260509143956 12 192 3.2 8.0 0.00 0.28 0.20 92 1008.6
20260509143857 12 232 0.0 8.0 0.00 0.28 0.20 91 1008.7
20260509143657 12 190 1.6 8.0 0.00 0.28 0.20 92 1008.6
20260509143457 12 213 1.6 11.3 0.00 0.28 0.20 91 1008.7
20260509143256 12 213 1.6 11.3 0.00 0.28 0.20 91 1008.7
20260509143156 12 221 1.6 11.3 0.00 0.28 0.20 91 1008.7
20260509142956 12 214 1.6 11.3 0.00 0.28 0.20 91 1008.6
20260509142857 12 211 4.8 11.3 0.00 0.28 0.20 91 1008.6
20260509142756 12 192 6.4 11.3 0.00 0.28 0.20 91 1008.7
20260509142656 12 260 6.4 11.3 0.00 0.28 0.20 92 1008.6
20260509142556 12 215 4.8 9.7 0.00 0.28 0.20 92 1008.6
20260509142357 12 198 4.8 8.0 0.00 0.28 0.20 92 1008.6
20260509142256 12 231 1.6 8.0 0.00 0.28 0.20 92 1008.6
20260509142156 12 198 0.0 8.0 0.00 0.28 0.20 92 1008.5
20260509142056 12 202 1.6 8.0 0.00 0.28 0.20 92 1008.5
20260509141957 11 207 3.2 11.3 0.00 0.28 0.20 92 1008.5
20260509141756 11 180 4.8 11.3 0.00 0.28 0.20 92 1008.5
20260509141556 11 169 3.2 11.3 0.00 0.28 0.20 92 1008.6
20260509141456 11 149 1.6 11.3 0.00 0.28 0.20 92 1008.6
20260509141356 11 208 1.6 11.3 0.00 0.28 0.20 92 1008.6
20260509141256 11 217 1.6 11.3 0.00 0.28 0.20 92 1008.6
20260509141157 11 196 3.2 11.3 0.00 0.28 0.20 92 1008.6
20260509141056 11 180 6.4 6.4 0.00 0.28 0.20 92 1008.7
20260509140956 11 204 1.6 4.8 0.00 0.28 0.20 92 1008.7
20260509140656 11 204 1.6 4.8 0.00 0.28 0.20 92 1008.8
20260509140557 11 241 0.0 6.4 0.00 0.28 0.20 92 1008.8
20260509140457 11 256 1.6 6.4 0.00 0.28 0.20 92 1008.8
20260509140357 11 232 1.6 6.4 0.00 0.28 0.20 92 1008.6
20260509140255 11 188 3.2 6.4 0.00 0.28 0.20 92 1008.7
20260509140156 11 188 3.2 6.4 0.00 0.28 0.20 92 1008.7
20260509140056 11 237 0.0 6.4 0.03 0.28 0.20 92 1008.8
20260509135956 11 260 3.2 6.4 0.03 0.28 0.20 92 1008.6
20260509135855 11 237 0.0 6.4 0.03 0.28 0.20 92 1008.7
20260509135756 11 229 6.4 6.4 0.03 0.28 0.20 92 1008.8
20260509135555 11 178 1.6 8.0 0.03 0.28 0.20 92 1008.7
20260509135455 11 168 0.0 8.0 0.03 0.28 0.20 92 1008.7
20260509135354 11 200 3.2 8.0 0.03 0.28 0.20 92 1008.6
20260509134956 11 210 1.6 9.7 0.03 0.28 0.20 92 1008.7
20260509134656 11 221 3.2 9.7 0.03 0.28 0.20 92 1008.7
20260509134556 11 202 1.6 9.7 0.03 0.28 0.20 92 1008.7
20260509134456 11 239 3.2 9.7 0.03 0.28 0.20 92 1008.7
20260509134355 11 178 3.2 9.7 0.03 0.28 0.20 92 1008.7
20260509134255 11 215 3.2 9.7 0.03 0.28 0.20 92 1008.7
20260509134155 11 196 6.4 9.7 0.03 0.28 0.20 92 1008.8
20260509133955 11 205 6.4 8.0 0.05 0.28 0.20 92 1008.7
20260509133855 11 211 0.0 8.0 0.05 0.28 0.20 92 1008.7
20260509133756 11 214 4.8 8.0 0.05 0.28 0.20 92 1008.8
20260509133555 11 213 4.8 6.4 0.05 0.28 0.20 93 1008.8
20260509133455 11 269 3.2 6.4 0.05 0.28 0.20 93 1008.7
20260509133355 11 254 3.2 8.0 0.05 0.28 0.20 93 1008.8
20260509133255 11 192 1.6 6.4 0.05 0.28 0.20 93 1008.7
20260509133156 11 241 4.8 6.4 0.05 0.28 0.20 93 1008.6
20260509133055 11 124 1.6 6.4 0.05 0.28 0.20 93 1008.7
20260509132856 11 202 3.2 12.9 0.05 0.28 0.20 93 1008.8
20260509132755 11 247 3.2 12.9 0.05 0.28 0.20 93 1008.7
20260509132555 11 210 6.4 12.9 0.05 0.28 0.20 93 1008.7
20260509132455 11 238 3.2 12.9 0.05 0.28 0.20 93 1008.7
20260509132356 11 207 3.2 12.9 0.05 0.28 0.20 93 1008.8
20260509132255 11 216 4.8 12.9 0.05 0.28 0.20 93 1008.8
20260509131855 11 196 0.0 9.7 0.05 0.28 0.20 93 1008.8
20260509131755 11 231 6.4 9.7 0.05 0.28 0.20 93 1008.8
20260509131556 11 205 1.6 9.7 0.05 0.28 0.20 93 1008.8
20260509131456 11 290 0.0 9.7 0.05 0.28 0.20 93 1008.8
20260509131354 11 184 6.4 6.4 0.08 0.28 0.20 93 1008.8
20260509131256 11 208 3.2 6.4 0.08 0.28 0.20 93 1008.9
20260509131055 11 169 6.4 11.3 0.08 0.28 0.20 93 1008.8
20260509130855 11 290 1.6 11.3 0.08 0.28 0.20 93 1008.8
20260509130755 11 190 1.6 11.3 0.08 0.28 0.20 93 1008.8
20260509130554 11 234 3.2 11.3 0.08 0.28 0.20 93 1008.8
20260509130455 11 224 3.2 11.3 0.08 0.28 0.20 93 1008.8
20260509130356 11 179 1.6 11.3 0.08 0.28 0.20 93 1008.8
20260509130256 11 241 8.0 11.3 0.08 0.28 0.20 93 1008.8
20260509130154 11 191 3.2 9.7 0.08 0.28 0.20 93 1008.7
20260509130055 11 238 3.2 9.7 0.08 0.25 0.18 93 1008.7
20260509125958 11 211 4.8 9.7 0.08 0.25 0.18 93 1008.7
20260509125856 11 194 4.8 9.7 0.08 0.25 0.18 93 1008.8
20260509125757 11 184 8.0 9.7 0.08 0.25 0.18 93 1008.7
20260509125656 11 202 3.2 9.7 0.08 0.25 0.18 93 1008.8
20260509125557 11 123 1.6 6.4 0.08 0.25 0.18 93 1008.8
20260509125457 11 178 1.6 8.0 0.08 0.25 0.18 93 1008.9
20260509125356 11 186 3.2 8.0 0.08 0.25 0.18 93 1008.9
20260509125256 11 200 3.2 8.0 0.08 0.25 0.18 93 1008.9
20260509125156 11 182 1.6 8.0 0.08 0.25 0.18 93 1008.9
20260509125057 11 196 3.2 8.0 0.08 0.25 0.18 93 1009.0
20260509124956 11 196 1.6 8.0 0.08 0.25 0.18 93 1009.0
20260509124857 11 185 3.2 8.0 0.08 0.25 0.18 93 1009.0
20260509124756 11 132 4.8 8.0 0.08 0.25 0.18 93 1009.1
20260509124556 11 185 4.8 8.0 0.08 0.25 0.18 93 1009.0
20260509124456 11 197 1.6 8.0 0.08 0.25 0.18 93 1009.0
20260509124356 11 210 1.6 8.0 0.08 0.25 0.18 93 1009.1
20260509124256 11 208 3.2 8.0 0.08 0.25 0.18 93 1009.1
20260509124156 11 284 1.6 8.0 0.08 0.25 0.18 93 1009.1
20260509123957 11 213 1.6 8.0 0.05 0.23 0.15 93 1009.2
20260509123856 11 203 0.0 8.0 0.08 0.23 0.15 93 1009.1
20260509123757 11 221 1.6 8.0 0.08 0.23 0.15 93 1009.1
20260509123656 11 211 4.8 4.8 0.08 0.23 0.15 93 1009.1
20260509123557 11 232 0.0 4.8 0.08 0.23 0.15 93 1009.1
20260509123456 11 213 1.6 4.8 0.08 0.23 0.15 93 1009.1
20260509123257 11 221 0.0 4.8 0.08 0.23 0.15 93 1009.1
20260509123156 11 209 1.6 4.8 0.08 0.23 0.15 93 1009.1
20260509123057 10 205 1.6 6.4 0.08 0.23 0.15 93 1009.1
20260509122958 10 208 1.6 6.4 0.08 0.23 0.15 93 1009.0
20260509122856 11 153 4.8 6.4 0.08 0.23 0.15 93 1009.0
20260509122757 11 184 1.6 6.4 0.08 0.23 0.15 93 1009.1
20260509122656 10 198 0.0 6.4 0.08 0.23 0.15 93 1009.1
20260509122558 10 236 1.6 9.7 0.08 0.23 0.15 93 1009.1
20260509122456 10 195 3.2 9.7 0.08 0.23 0.15 93 1009.2
20260509122356 10 198 0.0 9.7 0.08 0.23 0.15 93 1009.0
20260509122257 10 194 1.6 9.7 0.08 0.23 0.15 93 1009.1
20260509122158 10 220 4.8 9.7 0.08 0.23 0.15 93 1009.1
20260509122057 10 227 3.2 9.7 0.08 0.23 0.15 93 1009.1
20260509121956 10 220 3.2 9.7 0.08 0.23 0.15 93 1009.0
20260509121856 10 242 4.8 9.7 0.08 0.23 0.15 93 1009.0
20260509121556 10 228 0.0 8.0 0.08 0.23 0.15 93 1009.0
20260509121456 10 221 3.2 8.0 0.08 0.23 0.15 93 1009.1
20260509121357 10 204 1.6 8.0 0.05 0.20 0.13 93 1009.1
20260509121257 10 197 4.8 8.0 0.05 0.20 0.13 93 1009.1
20260509121156 10 194 0.0 8.0 0.05 0.20 0.13 93 1009.1
20260509121056 10 182 1.6 8.0 0.05 0.20 0.13 93 1009.1
20260509120956 10 174 4.8 8.0 0.08 0.20 0.13 93 1009.1
20260509120857 10 252 1.6 9.7 0.08 0.20 0.13 93 1009.1
20260509120756 10 184 1.6 9.7 0.08 0.20 0.13 93 1009.1
20260509120656 10 181 1.6 9.7 0.08 0.20 0.13 92 1009.2
20260509120557 10 178 1.6 9.7 0.08 0.20 0.13 93 1009.2
20260509120456 10 180 0.0 9.7 0.08 0.20 0.13 92 1009.2
20260509120356 10 179 1.6 9.7 0.08 0.20 0.13 93 1009.2
20260509120255 10 211 0.0 9.7 0.08 0.20 0.13 92 1009.2
20260509120158 10 225 1.6 9.7 0.08 0.20 0.13 92 1009.1
20260509115955 10 229 3.2 8.0 0.08 0.18 0.10 92 1009.2
20260509115855 10 273 1.6 8.0 0.08 0.18 0.10 92 1009.2
20260509115755 10 221 3.2 6.4 0.08 0.18 0.10 92 1009.1
20260509115656 10 270 1.6 6.4 0.08 0.18 0.10 93 1009.1
20260509115555 10 215 3.2 6.4 0.08 0.18 0.10 93 1009.1
20260509115455 10 223 0.0 3.2 0.08 0.18 0.10 93 1009.1
20260509115356 10 223 0.0 3.2 0.08 0.18 0.10 92 1009.0
20260509115255 10 186 0.0 3.2 0.08 0.18 0.10 93 1009.1
20260509115155 10 186 1.6 3.2 0.08 0.18 0.10 93 1009.1
20260509115056 10 166 1.6 3.2 0.08 0.18 0.10 93 1009.1
20260509114955 10 208 0.0 3.2 0.08 0.18 0.10 92 1009.1
20260509114854 10 208 1.6 3.2 0.08 0.18 0.10 92 1009.1
20260509114755 10 207 1.6 3.2 0.08 0.18 0.10 92 1009.0
20260509114655 10 226 1.6 3.2 0.08 0.18 0.10 92 1009.1
20260509114455 10 184 1.6 3.2 0.08 0.18 0.10 93 1009.0
20260509114255 10 229 1.6 3.2 0.08 0.18 0.10 92 1009.0
20260509114155 10 236 1.6 3.2 0.08 0.18 0.10 92 1009.0
20260509113855 10 215 1.6 4.8 0.05 0.15 0.08 92 1009.0
20260509113755 10 220 1.6 4.8 0.05 0.15 0.08 92 1008.9
20260509113656 10 202 0.0 4.8 0.05 0.15 0.08 92 1009.0
20260509113555 10 223 0.0 4.8 0.05 0.15 0.08 92 1009.0
20260509113355 10 223 3.2 4.8 0.05 0.15 0.08 92 1009.0
20260509113256 10 248 1.6 4.8 0.05 0.15 0.08 92 1008.9
20260509113156 10 206 1.6 4.8 0.05 0.15 0.08 92 1009.0
20260509113055 10 234 3.2 4.8 0.05 0.15 0.08 92 1008.9
20260509112955 10 234 3.2 4.8 0.05 0.15 0.08 92 1008.9
20260509112855 10 232 3.2 4.8 0.05 0.15 0.08 92 1008.9
20260509112755 10 188 1.6 4.8 0.05 0.15 0.08 92 1008.9
20260509112655 10 186 3.2 4.8 0.05 0.15 0.08 92 1008.9
20260509112456 10 169 3.2 6.4 0.05 0.15 0.08 92 1009.0
20260509112354 10 208 1.6 6.4 0.05 0.15 0.08 91 1008.9
20260509112255 10 228 1.6 6.4 0.05 0.15 0.08 91 1008.9
20260509112155 10 202 1.6 6.4 0.05 0.15 0.08 91 1008.9
20260509112056 10 267 3.2 6.4 0.05 0.15 0.08 91 1008.8
20260509111855 10 232 1.6 6.4 0.05 0.15 0.08 91 1008.9
20260509111755 10 234 1.6 14.5 0.05 0.15 0.08 91 1009.0
20260509111655 10 215 3.2 14.5 0.05 0.15 0.08 91 1008.9
20260509111556 10 188 3.2 14.5 0.05 0.15 0.08 91 1008.9
20260509111456 10 246 1.6 14.5 0.05 0.15 0.08 91 1008.9
20260509111354 10 217 0.0 14.5 0.05 0.15 0.08 91 1008.9
20260509111255 10 250 1.6 14.5 0.05 0.15 0.08 91 1008.8
20260509111155 10 205 1.6 14.5 0.05 0.15 0.08 91 1008.9
20260509110955 10 190 4.8 14.5 0.03 0.13 0.05 91 1008.9
20260509110855 10 208 1.6 4.8 0.03 0.13 0.05 91 1008.9
20260509110756 10 259 1.6 4.8 0.03 0.13 0.05 91 1008.8
20260509110655 10 123 4.8 4.8 0.03 0.13 0.05 91 1008.9
20260509110556 10 201 1.6 6.4 0.03 0.13 0.05 91 1008.9
20260509110254 11 225 1.6 6.4 0.03 0.13 0.05 90 1008.8
20260509110055 11 168 1.6 6.4 0.00 0.10 0.03 90 1008.8
20260509105957 11 180 4.8 6.4 0.00 0.10 0.03 90 1008.8
20260509105656 10 227 1.6 6.4 0.00 0.10 0.03 90 1008.8
20260509105557 10 247 3.2 6.4 0.00 0.10 0.03 90 1008.8
20260509105455 11 209 3.2 6.4 0.00 0.10 0.03 90 1008.7
20260509105255 10 227 4.8 6.4 0.00 0.10 0.03 90 1008.8
20260509105156 11 150 3.2 6.4 0.00 0.10 0.03 90 1008.8
20260509105056 10 194 4.8 6.4 0.00 0.10 0.03 90 1008.8
20260509104955 10 211 0.0 6.4 0.00 0.10 0.03 90 1008.7
20260509104855 10 250 1.6 6.4 0.00 0.10 0.03 90 1008.7
20260509104755 10 192 4.8 8.0 0.00 0.10 0.03 90 1008.7
20260509104655 10 187 0.0 8.0 0.00 0.10 0.03 90 1008.7
20260509104556 10 214 1.6 8.0 0.00 0.10 0.03 90 1008.6
20260509104255 10 261 3.2 4.8 0.00 0.10 0.03 90 1008.6
20260509104156 10 206 1.6 4.8 0.00 0.10 0.03 90 1008.6
20260509104055 10 206 3.2 4.8 0.00 0.10 0.03 90 1008.6
20260509103955 10 196 3.2 8.0 0.00 0.10 0.03 90 1008.6
20260509103756 10 154 3.2 8.0 0.00 0.10 0.03 90 1008.5
20260509103656 10 232 0.0 8.0 0.03 0.10 0.03 90 1008.6
20260509103555 10 185 1.6 8.0 0.03 0.10 0.03 90 1008.6
20260509103455 10 234 3.2 8.0 0.03 0.10 0.03 90 1008.5
20260509103356 10 186 1.6 8.0 0.03 0.10 0.03 90 1008.5
20260509103255 10 204 1.6 8.0 0.03 0.10 0.03 90 1008.5
20260509103155 10 226 3.2 9.7 0.03 0.10 0.03 90 1008.6
20260509103056 10 188 3.2 8.0 0.03 0.10 0.03 90 1008.6
20260509102856 10 208 1.6 11.3 0.03 0.10 0.03 90 1008.6
20260509102754 10 268 4.8 11.3 0.03 0.10 0.03 90 1008.5
20260509102556 10 221 3.2 11.3 0.03 0.10 0.03 90 1008.6
20260509102455 10 209 6.4 11.3 0.03 0.10 0.03 90 1008.5
20260509102355 10 232 0.0 11.3 0.03 0.10 0.03 90 1008.6
20260509102255 10 176 1.6 11.3 0.03 0.10 0.03 90 1008.6
20260509102155 10 257 8.0 11.3 0.03 0.10 0.03 90 1008.6
20260509102055 10 185 6.4 8.0 0.03 0.10 0.03 90 1008.6
20260509101955 10 237 1.6 8.0 0.03 0.10 0.03 90 1008.6
20260509101856 10 267 4.8 8.0 0.03 0.10 0.03 90 1008.7
20260509101755 10 286 1.6 8.0 0.03 0.10 0.03 90 1008.7
20260509101655 10 241 1.6 8.0 0.03 0.10 0.03 90 1008.6
20260509101555 10 175 4.8 8.0 0.03 0.10 0.03 90 1008.6
20260509101355 10 210 3.2 11.3 0.03 0.10 0.03 90 1008.7
20260509101255 10 197 3.2 11.3 0.03 0.10 0.03 91 1008.6
20260509101155 10 171 3.2 11.3 0.03 0.10 0.03 91 1008.7
20260509101055 10 237 1.6 11.3 0.03 0.10 0.03 91 1008.6
20260509100956 10 223 4.8 11.3 0.03 0.10 0.03 91 1008.7
20260509100855 10 204 3.2 11.3 0.03 0.10 0.03 91 1008.7
20260509100755 10 221 3.2 11.3 0.03 0.10 0.03 91 1008.6
20260509100655 10 184 4.8 11.3 0.03 0.10 0.03 91 1008.8
20260509100555 10 187 9.7 11.3 0.03 0.10 0.03 91 1008.6
20260509100455 10 195 1.6 6.4 0.03 0.10 0.03 91 1008.6
20260509100355 10 269 3.2 6.4 0.03 0.10 0.03 91 1008.6
20260509100255 10 219 3.2 6.4 0.03 0.10 0.03 91 1008.6
20260509100155 10 205 1.6 6.4 0.03 0.10 0.03 91 1008.7
20260509100056 10 248 0.0 8.0 0.03 0.10 0.03 91 1008.7
20260509095956 10 237 1.6 8.0 0.03 0.10 0.03 91 1008.7
20260509095855 10 196 3.2 8.0 0.03 0.10 0.03 91 1008.7
20260509095755 10 188 1.6 8.0 0.03 0.10 0.03 91 1008.8
20260509095655 10 230 1.6 8.0 0.03 0.10 0.03 91 1008.8
20260509095555 10 201 0.0 8.0 0.03 0.10 0.03 91 1008.7
20260509095256 10 198 6.4 8.0 0.03 0.10 0.03 91 1008.6
20260509095055 10 185 1.6 4.8 0.03 0.10 0.03 91 1008.8
20260509094955 10 229 0.0 4.8 0.03 0.10 0.03 91 1008.8
20260509094855 10 229 1.6 4.8 0.03 0.10 0.03 91 1008.8
20260509094756 10 229 1.6 6.4 0.03 0.10 0.03 91 1008.8
20260509094655 10 216 1.6 6.4 0.03 0.10 0.03 91 1008.8
20260509094556 10 229 1.6 6.4 0.03 0.10 0.03 91 1008.8
20260509094356 10 219 0.0 6.4 0.03 0.10 0.03 91 1008.8
20260509094255 10 219 1.6 11.3 0.03 0.10 0.03 91 1008.8
20260509094155 10 219 1.6 11.3 0.03 0.10 0.03 91 1008.9
20260509094055 10 186 3.2 11.3 0.03 0.10 0.03 91 1008.9
20260509093855 10 178 0.0 11.3 0.03 0.10 0.03 91 1008.8
20260509093754 10 247 1.6 11.3 0.03 0.10 0.03 91 1008.8
20260509093456 10 227 11.3 11.3 0.00 0.08 0.00 91 1008.9
20260509093355 10 191 1.6 9.7 0.00 0.08 0.00 91 1009.0
20260509093256 10 186 3.2 9.7 0.00 0.08 0.00 91 1008.9
20260509093156 10 202 1.6 9.7 0.00 0.08 0.00 91 1008.9
20260509092855 10 235 1.6 9.7 0.00 0.08 0.00 92 1009.0
20260509092755 10 227 3.2 9.7 0.00 0.08 0.00 92 1008.9
20260509092655 10 194 1.6 9.7 0.00 0.08 0.00 92 1008.9
20260509092557 10 217 3.2 9.7 0.00 0.08 0.00 92 1009.0
20260509092454 10 196 3.2 4.8 0.00 0.08 0.00 92 1009.0
20260509092355 10 226 1.6 4.8 0.00 0.08 0.00 92 1009.0
20260509092254 10 217 0.0 4.8 0.00 0.08 0.00 92 1009.0
20260509092155 10 215 3.2 4.8 0.00 0.08 0.00 92 1009.0
20260509092055 10 219 0.0 4.8 0.00 0.08 0.00 92 1009.0
20260509091854 10 207 1.6 6.4 0.00 0.08 0.00 92 1009.0
20260509091754 10 182 1.6 6.4 0.00 0.08 0.00 92 1009.0
20260509091655 10 182 1.6 6.4 0.00 0.08 0.00 92 1009.0
20260509091554 10 182 1.6 6.4 0.00 0.08 0.00 92 1009.0
20260509091455 10 181 4.8 6.4 0.00 0.08 0.00 92 1009.0
20260509091355 10 202 1.6 8.0 0.00 0.08 0.00 92 1009.1
20260509091255 10 213 0.0 8.0 0.00 0.08 0.00 92 1009.1
20260509091156 10 244 3.2 8.0 0.00 0.08 0.00 93 1009.1
20260509091056 10 190 1.6 8.0 0.00 0.08 0.00 93 1009.1
20260509090855 10 261 1.6 8.0 0.00 0.08 0.00 93 1009.1
20260509090656 10 249 0.0 8.0 0.00 0.08 0.00 93 1009.2
20260509090555 10 259 3.2 8.0 0.00 0.08 0.00 93 1009.1
20260509090455 10 238 1.6 6.4 0.00 0.08 0.00 93 1009.1
20260509090354 10 219 1.6 4.8 0.00 0.08 0.00 93 1009.1
20260509090255 10 238 1.6 4.8 0.00 0.08 0.00 93 1009.1
20260509090155 10 188 3.2 4.8 0.00 0.08 0.00 93 1009.2
20260509090054 10 219 1.6 4.8 0.00 0.08 0.00 93 1009.1
20260509085957 10 227 0.0 4.8 0.00 0.08 0.00 93 1009.1
20260509085855 10 210 3.2 4.8 0.00 0.08 0.00 94 1009.2
20260509085655 10 223 0.0 4.8 0.00 0.08 0.00 94 1009.2
20260509085555 10 195 3.2 4.8 0.00 0.08 0.00 94 1009.2
20260509085456 10 213 0.0 4.8 0.00 0.08 0.00 94 1009.3
20260509085355 10 213 1.6 4.8 0.00 0.08 0.00 94 1009.2
20260509085255 10 250 1.6 4.8 0.00 0.08 0.00 94 1009.3
20260509085155 10 211 0.0 3.2 0.00 0.08 0.00 94 1009.2
20260509085055 10 211 1.6 3.2 0.00 0.08 0.00 94 1009.2
20260509084955 10 244 1.6 3.2 0.00 0.08 0.00 94 1009.2
20260509084855 10 275 1.6 3.2 0.00 0.08 0.00 94 1009.2
20260509084755 10 260 1.6 3.2 0.00 0.08 0.00 94 1009.2
20260509084654 10 20 0.0 3.2 0.00 0.08 0.00 94 1009.1
20260509084555 10 20 1.6 3.2 0.00 0.08 0.00 94 1009.2
20260509084455 10 20 0.0 1.6 0.00 0.08 0.00 94 1009.2
20260509084354 10 336 0.0 1.6 0.00 0.08 0.00 94 1009.2
20260509084255 10 336 0.0 1.6 0.00 0.08 0.00 94 1009.3
20260509084155 10 336 0.0 1.6 0.00 0.08 0.00 94 1009.3
20260509084055 10 336 0.0 1.6 0.00 0.08 0.00 94 1009.3
20260509083957 10 336 0.0 1.6 0.00 0.08 0.00 94 1009.3
20260509083855 10 336 0.0 1.6 0.00 0.08 0.00 94 1009.3
20260509083755 10 336 1.6 1.6 0.00 0.08 0.00 94 1009.3
20260509083655 10 338 0.0 1.6 0.00 0.08 0.00 94 1009.3
20260509083556 10 338 0.0 1.6 0.00 0.08 0.00 94 1009.3
20260509083456 10 338 0.0 1.6 0.00 0.08 0.00 94 1009.3
20260509083354 10 338 0.0 1.6 0.00 0.08 0.00 94 1009.2
20260509083254 10 338 0.0 1.6 0.00 0.08 0.00 94 1009.3
20260509083156 10 338 1.6 1.6 0.00 0.08 0.00 94 1009.3
20260509083055 10 338 0.0 1.6 0.00 0.08 0.00 94 1009.2
20260509082956 10 338 0.0 1.6 0.00 0.08 0.00 94 1009.3
20260509082855 10 338 0.0 1.6 0.00 0.08 0.00 94 1009.3
20260509082654 10 338 0.0 1.6 0.00 0.08 0.00 94 1009.2
20260509082555 10 338 0.0 1.6 0.00 0.08 0.00 94 1009.3
20260509082456 10 338 1.6 1.6 0.00 0.08 0.00 94 1009.3
20260509082355 10 338 1.6 3.2 0.00 0.08 0.00 93 1009.3
20260509082255 10 338 0.0 3.2 0.00 0.08 0.00 93 1009.3
20260509082155 10 338 0.0 3.2 0.00 0.08 0.00 94 1009.3
20260509082055 10 338 0.0 3.2 0.00 0.08 0.00 94 1009.3
20260509081956 10 338 0.0 3.2 0.00 0.08 0.00 94 1009.4
20260509081855 10 338 0.0 3.2 0.00 0.08 0.00 93 1009.3
20260509081758 10 338 0.0 3.2 0.00 0.08 0.00 93 1009.3
20260509081654 10 338 0.0 3.2 0.00 0.08 0.00 93 1009.3
20260509081555 10 338 1.6 3.2 0.00 0.08 0.00 93 1009.3
20260509081455 10 338 1.6 1.6 0.00 0.08 0.00 93 1009.2
20260509081356 10 350 1.6 1.6 0.00 0.08 0.00 93 1009.3
20260509081254 10 351 0.0 1.6 0.00 0.08 0.00 93 1009.3
20260509081155 10 351 1.6 1.6 0.00 0.08 0.00 93 1009.3
20260509080957 10 9 0.0 1.6 0.00 0.08 0.00 93 1009.4
20260509080855 10 9 0.0 1.6 0.00 0.08 0.00 93 1009.3
20260509080756 10 9 0.0 1.6 0.00 0.08 0.00 93 1009.4
20260509080655 10 9 1.6 1.6 0.00 0.08 0.00 93 1009.3
20260509080556 10 9 0.0 0.0 0.00 0.08 0.00 93 1009.3
20260509080455 10 9 0.0 1.6 0.00 0.08 0.00 93 1009.3
20260509080355 10 9 0.0 1.6 0.00 0.08 0.00 93 1009.3
20260509080255 10 9 0.0 1.6 0.00 0.08 0.00 93 1009.3
20260509080155 10 9 0.0 1.6 0.00 0.08 0.00 93 1009.3
20260509075955 10 9 0.0 1.6 0.00 0.08 0.00 93 1009.2
20260509075854 10 9 0.0 1.6 0.00 0.08 0.00 93 1009.2
20260509075755 10 9 0.0 1.6 0.00 0.08 0.00 93 1009.2
20260509075654 10 9 0.0 1.6 0.00 0.08 0.00 93 1009.2
20260509075554 10 9 0.0 1.6 0.00 0.08 0.00 93 1009.2
20260509075454 10 9 0.0 1.6 0.00 0.08 0.00 93 1009.1
20260509075354 10 9 0.0 1.6 0.00 0.08 0.00 93 1009.1
20260509075254 10 9 0.0 1.6 0.00 0.08 0.00 93 1009.2
20260509075055 10 9 1.6 1.6 0.00 0.08 0.00 93 1009.2
20260509074656 10 9 0.0 1.6 0.00 0.08 0.00 93 1009.1
20260509074554 10 9 0.0 1.6 0.00 0.08 0.00 93 1009.2
20260509074254 10 9 0.0 1.6 0.00 0.08 0.00 93 1009.2
20260509074154 10 9 0.0 1.6 0.00 0.08 0.00 92 1009.2
20260509074054 10 9 0.0 1.6 0.00 0.08 0.00 92 1009.2
20260509073954 10 9 0.0 1.6 0.00 0.08 0.00 92 1009.2
20260509073854 10 9 0.0 1.6 0.00 0.08 0.00 92 1009.2
20260509073754 10 9 0.0 1.6 0.00 0.08 0.00 92 1009.2
20260509073655 10 9 0.0 1.6 0.00 0.08 0.00 92 1009.2
20260509073554 10 9 0.0 1.6 0.00 0.08 0.00 92 1009.2
20260509073453 10 9 0.0 1.6 0.00 0.08 0.00 92 1009.2
20260509073354 10 9 0.0 1.6 0.00 0.08 0.00 92 1009.2
20260509073253 10 9 1.6 1.6 0.00 0.08 0.00 92 1009.2
20260509073155 10 9 0.0 1.6 0.00 0.08 0.00 92 1009.3
20260509073054 10 9 0.0 1.6 0.00 0.08 0.00 92 1009.3
20260509072854 10 9 0.0 1.6 0.00 0.08 0.00 92 1009.4
20260509072754 10 9 1.6 1.6 0.00 0.08 0.00 92 1009.3
20260509072654 10 9 0.0 1.6 0.00 0.08 0.00 92 1009.3
20260509072554 10 9 0.0 1.6 0.00 0.08 0.00 92 1009.2
20260509072454 10 9 0.0 0.0 0.00 0.08 0.00 92 1009.2
20260509072354 10 9 0.0 0.0 0.00 0.08 0.00 92 1009.2
20260509072255 10 9 0.0 1.6 0.00 0.08 0.00 92 1009.3
20260509072154 10 9 0.0 1.6 0.00 0.08 0.00 92 1009.2
20260509072054 10 9 0.0 1.6 0.00 0.08 0.00 92 1009.3
20260509071955 10 9 0.0 1.6 0.00 0.08 0.00 92 1009.2